Time,TemperatureF,DewpointF,PressureIn,WindDirection,WindDirectionDegrees,WindSpeedMPH,WindSpeedGustMPH,Humidity,HourlyPrecipIn,Conditions,Clouds,dailyrainin,SoftwareType,DateUTC
2013-06-21 00:01:00,72.5,64.3,29.34,SE,132,2.0,5.0,75,0.00,,,0.00,WUHU216DAVISVP2,2013-06-21 04:01:00,
2013-06-21 00:06:00,72.7,63.3,29.34,SE,132,0.0,6.0,72,0.00,,,0.00,WUHU216DAVISVP2,2013-06-21 04:06:00,
2013-06-21 00:11:00,72.9,63.5,29.34,SE,131,1.0,6.0,72,0.00,,,0.00,WUHU216DAVISVP2,2013-06-21 04:11:00,
2013-06-21 00:16:00,72.9,63.3,29.34,SE,131,1.0,6.0,72,0.00,,,0.00,WUHU216DAVISVP2,2013-06-21 04:16:00,
2013-06-21 00:17:00,72.9,62.9,29.34,SE,132,0.0,6.0,71,0.00,,,0.00,WUHU216DAVISVP2,2013-06-21 04:17:00,
2013-06-21 00:21:00,72.9,62.9,29.34,SE,132,1.0,6.0,71,0.00,,,0.00,WUHU216DAVISVP2,2013-06-21 04:21:00,
2013-06-21 00:22:00,72.9,62.9,29.34,SE,131,1.0,6.0,71,0.00,,,0.00,WUHU216DAVISVP2,2013-06-21 04:22:00,
2013-06-21 00:26:00,72.8,63.4,29.34,SE,131,0.0,5.0,72,0.00,,,0.00,WUHU216DAVISVP2,2013-06-21 04:26:00,
2013-06-21 00:27:00,72.8,63.4,29.34,SE,131,0.0,5.0,72,0.00,,,0.00,WUHU216DAVISVP2,2013-06-21 04:27:00,
2013-06-21 00:32:00,72.7,63.3,29.35,SE,132,0.0,5.0,72,0.00,,,0.00,WUHU216DAVISVP2,2013-06-21 04:32:00,
2013-06-21 00:37:00,72.5,63.4,29.34,SE,131,0.0,4.0,73,0.00,,,0.00,WUHU216DAVISVP2,2013-06-21 04:37:00,
2013-06-21 00:42:00,72.3,63.2,29.34,SE,131,0.0,2.0,73,0.00,,,0.00,WUHU216DAVISVP2,2013-06-21 04:42:00,
2013-06-21 00:43:00,72.2,63.1,29.34,SE,131,1.0,2.0,73,0.00,,,0.00,WUHU216DAVISVP2,2013-06-21 04:43:00,
2013-06-21 00:47:00,72.2,62.8,29.34,SE,131,0.0,2.0,72,0.00,,,0.00,WUHU216DAVISVP2,2013-06-21 04:47:00,
2013-06-21 00:48:00,72.2,62.8,29.35,SE,131,0.0,2.0,72,0.00,,,0.00,WUHU216DAVISVP2,2013-06-21 04:48:00,
2013-06-21 00:49:00,72.2,62.8,29.35,SE,132,0.0,2.0,72,0.00,,,0.00,WUHU216DAVISVP2,2013-06-21 04:49:00,
2013-06-21 00:52:00,72.2,62.5,29.35,SE,131,0.0,2.0,71,0.00,,,0.00,WUHU216DAVISVP2,2013-06-21 04:52:00,
2013-06-21 00:53:00,72.2,62.5,29.35,SE,131,0.0,2.0,71,0.00,,,0.00,WUHU216DAVISVP2,2013-06-21 04:53:00,
2013-06-21 00:54:00,72.2,62.5,29.34,SE,131,0.0,2.0,71,0.00,,,0.00,WUHU216DAVISVP2,2013-06-21 04:54:00,
2013-06-21 00:57:00,72.2,62.7,29.34,SE,132,0.0,2.0,72,0.00,,,0.00,WUHU216DAVISVP2,2013-06-21 04:57:00,
2013-06-21 00:58:00,72.2,62.7,29.34,SE,131,0.0,2.0,72,0.00,,,0.00,WUHU216DAVISVP2,2013-06-21 04:58:00,
2013-06-21 00:59:00,72.2,62.7,29.34,SE,131,1.0,2.0,72,0.00,,,0.00,WUHU216DAVISVP2,2013-06-21 04:59:00,
2013-06-21 01:03:00,72.1,62.6,29.34,SE,132,2.0,3.0,72,0.00,,,0.00,WUHU216DAVISVP2,2013-06-21 05:03:00,
2013-06-21 01:04:00,72.1,62.6,29.34,SE,131,0.0,4.0,72,0.00,,,0.00,WUHU216DAVISVP2,2013-06-21 05:04:00,
2013-06-21 01:05:00,72.0,62.5,29.34,SE,131,1.0,4.0,72,0.00,,,0.00,WUHU216DAVISVP2,2013-06-21 05:05:00,
2013-06-21 01:08:00,71.9,62.6,29.34,SE,131,1.0,4.0,72,0.00,,,0.00,WUHU216DAVISVP2,2013-06-21 05:08:00,
2013-06-21 01:09:00,71.8,62.5,29.34,SE,131,0.0,4.0,72,0.00,,,0.00,WUHU216DAVISVP2,2013-06-21 05:09:00,
2013-06-21 01:10:00,71.8,62.8,29.35,SE,131,1.0,4.0,73,0.00,,,0.00,WUHU216DAVISVP2,2013-06-21 05:10:00,
2013-06-21 01:13:00,71.7,62.7,29.35,SE,131,0.0,4.0,73,0.00,,,0.00,WUHU216DAVISVP2,2013-06-21 05:13:00,
2013-06-21 01:14:00,71.7,63.1,29.35,SE,131,0.0,4.0,74,0.00,,,0.00,WUHU216DAVISVP2,2013-06-21 05:14:00,
2013-06-21 01:16:00,71.7,62.6,29.35,SE,132,1.0,4.0,73,0.00,,,0.00,WUHU216DAVISVP2,2013-06-21 05:16:00,
2013-06-21 01:18:00,71.6,62.5,29.35,SE,131,1.0,4.0,73,0.00,,,0.00,WUHU216DAVISVP2,2013-06-21 05:18:00,
2013-06-21 01:19:00,71.5,62.4,29.34,SE,131,0.0,4.0,73,0.00,,,0.00,WUHU216DAVISVP2,2013-06-21 05:19:00,
2013-06-21 01:21:00,71.5,62.4,29.35,SE,131,0.0,4.0,73,0.00,,,0.00,WUHU216DAVISVP2,2013-06-21 05:21:00,
2013-06-21 01:23:00,71.4,62.3,29.34,SE,131,1.0,4.0,73,0.00,,,0.00,WUHU216DAVISVP2,2013-06-21 05:23:00,
2013-06-21 01:24:00,71.4,62.3,29.35,SE,131,1.0,4.0,73,0.00,,,0.00,WUHU216DAVISVP2,2013-06-21 05:24:00,
2013-06-21 01:25:00,71.4,62.3,29.34,SE,131,1.0,4.0,73,0.00,,,0.00,WUHU216DAVISVP2,2013-06-21 05:25:00,
2013-06-21 01:26:00,71.4,62.3,29.34,SE,131,0.0,4.0,73,0.00,,,0.00,WUHU216DAVISVP2,2013-06-21 05:26:00,
2013-06-21 01:28:00,71.3,62.4,29.35,SE,131,2.0,4.0,73,0.00,,,0.00,WUHU216DAVISVP2,2013-06-21 05:28:00,
2013-06-21 01:29:00,71.3,62.4,29.35,SE,131,2.0,4.0,73,0.00,,,0.00,WUHU216DAVISVP2,2013-06-21 05:29:00,
2013-06-21 01:30:00,71.3,62.4,29.35,SE,131,0.0,4.0,73,0.00,,,0.00,WUHU216DAVISVP2,2013-06-21 05:30:00,
2013-06-21 01:31:00,71.3,62.4,29.35,SE,131,0.0,4.0,73,0.00,,,0.00,WUHU216DAVISVP2,2013-06-21 05:31:00,
2013-06-21 01:33:00,71.2,62.3,29.35,SE,131,0.0,4.0,73,0.00,,,0.00,WUHU216DAVISVP2,2013-06-21 05:33:00,
2013-06-21 01:34:00,71.2,62.6,29.35,SE,131,0.0,4.0,74,0.00,,,0.00,WUHU216DAVISVP2,2013-06-21 05:34:00,
2013-06-21 01:35:00,71.1,62.5,29.34,SE,131,1.0,4.0,74,0.00,,,0.00,WUHU216DAVISVP2,2013-06-21 05:35:00,
2013-06-21 01:36:00,71.1,62.5,29.34,SE,131,1.0,4.0,74,0.00,,,0.00,WUHU216DAVISVP2,2013-06-21 05:36:00,
2013-06-21 01:38:00,71.1,62.4,29.34,SE,131,0.0,4.0,74,0.00,,,0.00,WUHU216DAVISVP2,2013-06-21 05:38:00,
2013-06-21 01:39:00,71.0,62.3,29.34,SE,132,0.0,4.0,74,0.00,,,0.00,WUHU216DAVISVP2,2013-06-21 05:39:00,
2013-06-21 01:40:00,71.0,62.3,29.34,SE,131,0.0,4.0,74,0.00,,,0.00,WUHU216DAVISVP2,2013-06-21 05:40:00,
2013-06-21 01:41:00,71.0,62.3,29.34,SE,132,0.0,4.0,74,0.00,,,0.00,WUHU216DAVISVP2,2013-06-21 05:41:00,
2013-06-21 01:43:00,70.9,62.2,29.35,SE,131,0.0,5.0,74,0.00,,,0.00,WUHU216DAVISVP2,2013-06-21 05:43:00,
2013-06-21 01:44:00,70.9,62.2,29.34,SE,132,1.0,5.0,74,0.00,,,0.00,WUHU216DAVISVP2,2013-06-21 05:44:00,
2013-06-21 01:45:00,70.9,62.2,29.34,SE,131,1.0,5.0,74,0.00,,,0.00,WUHU216DAVISVP2,2013-06-21 05:45:00,
2013-06-21 01:46:00,70.9,62.2,29.34,SE,131,1.0,5.0,74,0.00,,,0.00,WUHU216DAVISVP2,2013-06-21 05:46:00,
2013-06-21 01:49:00,70.9,62.3,29.35,SE,131,0.0,5.0,74,0.00,,,0.00,WUHU216DAVISVP2,2013-06-21 05:49:00,
2013-06-21 01:51:00,70.9,62.3,29.35,SE,131,0.0,5.0,74,0.00,,,0.00,WUHU216DAVISVP2,2013-06-21 05:51:00,
2013-06-21 01:52:00,70.9,62.3,29.35,SE,131,0.0,5.0,74,0.00,,,0.00,WUHU216DAVISVP2,2013-06-21 05:52:00,
2013-06-21 01:54:00,70.9,62.3,29.35,SE,132,0.0,5.0,74,0.00,,,0.00,WUHU216DAVISVP2,2013-06-21 05:54:00,
2013-06-21 01:55:00,70.9,62.3,29.35,SE,131,0.0,5.0,74,0.00,,,0.00,WUHU216DAVISVP2,2013-06-21 05:55:00,
2013-06-21 01:56:00,70.9,62.2,29.35,SE,131,0.0,5.0,74,0.00,,,0.00,WUHU216DAVISVP2,2013-06-21 05:56:00,
2013-06-21 01:57:00,70.8,62.1,29.35,SE,132,0.0,5.0,74,0.00,,,0.00,WUHU216DAVISVP2,2013-06-21 05:57:00,
2013-06-21 01:59:00,70.9,62.2,29.34,SE,132,0.0,5.0,74,0.00,,,0.00,WUHU216DAVISVP2,2013-06-21 05:59:00,
2013-06-21 02:00:00,70.8,62.1,29.34,SE,131,0.0,5.0,74,0.00,,,0.00,WUHU216DAVISVP2,2013-06-21 06:00:00,
2013-06-21 02:01:00,70.8,62.1,29.35,SE,131,0.0,5.0,74,0.00,,,0.00,WUHU216DAVISVP2,2013-06-21 06:01:00,
2013-06-21 02:02:00,70.8,62.1,29.35,SE,131,0.0,5.0,74,0.00,,,0.00,WUHU216DAVISVP2,2013-06-21 06:02:00,
2013-06-21 02:04:00,70.8,62.1,29.34,SE,131,1.0,4.0,74,0.00,,,0.00,WUHU216DAVISVP2,2013-06-21 06:04:00,
2013-06-21 02:05:00,70.8,62.1,29.34,SE,131,1.0,4.0,74,0.00,,,0.00,WUHU216DAVISVP2,2013-06-21 06:05:00,
2013-06-21 02:06:00,70.8,62.1,29.35,SE,131,0.0,4.0,74,0.00,,,0.00,WUHU216DAVISVP2,2013-06-21 06:06:00,
2013-06-21 02:08:00,70.8,62.3,29.34,SE,131,3.0,4.0,74,0.00,,,0.00,WUHU216DAVISVP2,2013-06-21 06:08:00,
2013-06-21 02:09:00,70.8,62.3,29.35,SE,131,1.0,4.0,74,0.00,,,0.00,WUHU216DAVISVP2,2013-06-21 06:09:00,
2013-06-21 02:10:00,70.8,62.3,29.35,SE,131,1.0,4.0,74,0.00,,,0.00,WUHU216DAVISVP2,2013-06-21 06:10:00,
2013-06-21 02:11:00,70.8,62.3,29.35,SE,132,1.0,4.0,74,0.00,,,0.00,WUHU216DAVISVP2,2013-06-21 06:11:00,
2013-06-21 02:12:00,70.8,62.3,29.35,SE,131,1.0,4.0,74,0.00,,,0.00,WUHU216DAVISVP2,2013-06-21 06:12:00,
2013-06-21 02:13:00,70.8,62.3,29.34,SE,132,1.0,4.0,74,0.00,,,0.00,WUHU216DAVISVP2,2013-06-21 06:13:00,
2013-06-21 02:14:00,70.8,62.3,29.34,SE,132,0.0,4.0,74,0.00,,,0.00,WUHU216DAVISVP2,2013-06-21 06:14:00,
2013-06-21 02:15:00,70.7,62.2,29.34,SE,132,0.0,4.0,74,0.00,,,0.00,WUHU216DAVISVP2,2013-06-21 06:15:00,
2013-06-21 02:16:00,70.7,62.2,29.34,SE,132,0.0,4.0,74,0.00,,,0.00,WUHU216DAVISVP2,2013-06-21 06:16:00,
2013-06-21 02:17:00,70.7,62.0,29.35,SE,132,0.0,4.0,74,0.00,,,0.00,WUHU216DAVISVP2,2013-06-21 06:17:00,
2013-06-21 02:18:00,70.7,62.0,29.34,SE,132,0.0,4.0,74,0.00,,,0.00,WUHU216DAVISVP2,2013-06-21 06:18:00,
2013-06-21 02:19:00,70.7,62.0,29.34,SE,132,0.0,4.0,74,0.00,,,0.00,WUHU216DAVISVP2,2013-06-21 06:19:00,
2013-06-21 02:21:00,70.6,61.9,29.35,SE,131,0.0,4.0,74,0.00,,,0.00,WUHU216DAVISVP2,2013-06-21 06:21:00,
2013-06-21 02:22:00,70.6,61.9,29.35,SE,132,0.0,4.0,74,0.00,,,0.00,WUHU216DAVISVP2,2013-06-21 06:22:00,
2013-06-21 02:23:00,70.6,61.9,29.34,SE,132,1.0,4.0,74,0.00,,,0.00,WUHU216DAVISVP2,2013-06-21 06:23:00,
2013-06-21 02:24:00,70.6,62.1,29.34,SE,132,0.0,4.0,74,0.00,,,0.00,WUHU216DAVISVP2,2013-06-21 06:24:00,
2013-06-21 02:26:00,70.6,62.1,29.35,SE,132,0.0,4.0,74,0.00,,,0.00,WUHU216DAVISVP2,2013-06-21 06:26:00,
2013-06-21 02:27:00,70.6,62.1,29.34,SE,132,0.0,4.0,74,0.00,,,0.00,WUHU216DAVISVP2,2013-06-21 06:27:00,
2013-06-21 02:28:00,70.6,62.1,29.35,SE,132,0.0,4.0,74,0.00,,,0.00,WUHU216DAVISVP2,2013-06-21 06:28:00,
2013-06-21 02:30:00,70.6,62.1,29.35,SE,132,0.0,2.0,74,0.00,,,0.00,WUHU216DAVISVP2,2013-06-21 06:30:00,
2013-06-21 02:31:00,70.6,62.1,29.35,SE,132,0.0,2.0,74,0.00,,,0.00,WUHU216DAVISVP2,2013-06-21 06:31:00,
2013-06-21 02:32:00,70.6,62.1,29.35,SE,132,0.0,2.0,74,0.00,,,0.00,WUHU216DAVISVP2,2013-06-21 06:32:00,
2013-06-21 02:34:00,70.6,62.1,29.35,SE,131,0.0,2.0,74,0.00,,,0.00,WUHU216DAVISVP2,2013-06-21 06:34:00,
2013-06-21 02:35:00,70.6,62.1,29.35,SE,132,0.0,2.0,74,0.00,,,0.00,WUHU216DAVISVP2,2013-06-21 06:35:00,
2013-06-21 02:36:00,70.6,62.1,29.35,SE,131,0.0,2.0,74,0.00,,,0.00,WUHU216DAVISVP2,2013-06-21 06:36:00,
2013-06-21 02:37:00,70.6,62.1,29.34,SE,132,0.0,2.0,74,0.00,,,0.00,WUHU216DAVISVP2,2013-06-21 06:37:00,
2013-06-21 02:39:00,70.6,61.9,29.35,SE,132,0.0,2.0,74,0.00,,,0.00,WUHU216DAVISVP2,2013-06-21 06:39:00,
2013-06-21 02:40:00,70.5,61.8,29.34,SE,131,1.0,2.0,74,0.00,,,0.00,WUHU216DAVISVP2,2013-06-21 06:40:00,
2013-06-21 02:41:00,70.5,61.8,29.35,SE,132,0.0,2.0,74,0.00,,,0.00,WUHU216DAVISVP2,2013-06-21 06:41:00,
2013-06-21 02:42:00,70.5,61.8,29.34,SE,132,0.0,2.0,74,0.00,,,0.00,WUHU216DAVISVP2,2013-06-21 06:42:00,
2013-06-21 02:44:00,70.4,61.7,29.34,SE,132,2.0,2.0,74,0.00,,,0.00,WUHU216DAVISVP2,2013-06-21 06:44:00,
2013-06-21 02:45:00,70.4,61.7,29.35,SE,132,1.0,2.0,74,0.00,,,0.00,WUHU216DAVISVP2,2013-06-21 06:45:00,
2013-06-21 02:46:00,70.3,61.8,29.34,SE,132,0.0,2.0,74,0.00,,,0.00,WUHU216DAVISVP2,2013-06-21 06:46:00,
2013-06-21 02:47:00,70.3,61.8,29.34,SE,132,0.0,2.0,74,0.00,,,0.00,WUHU216DAVISVP2,2013-06-21 06:47:00,
2013-06-21 02:48:00,70.3,61.8,29.34,SE,132,0.0,2.0,74,0.00,,,0.00,WUHU216DAVISVP2,2013-06-21 06:48:00,
2013-06-21 02:49:00,70.3,61.8,29.35,SE,132,0.0,2.0,74,0.00,,,0.00,WUHU216DAVISVP2,2013-06-21 06:49:00,
2013-06-21 02:50:00,70.2,61.7,29.35,SE,132,1.0,2.0,74,0.00,,,0.00,WUHU216DAVISVP2,2013-06-21 06:50:00,
2013-06-21 02:51:00,70.2,61.7,29.35,SE,132,0.0,2.0,74,0.00,,,0.00,WUHU216DAVISVP2,2013-06-21 06:51:00,
2013-06-21 02:52:00,70.1,61.6,29.35,SE,132,0.0,2.0,74,0.00,,,0.00,WUHU216DAVISVP2,2013-06-21 06:52:00,
2013-06-21 02:53:00,70.1,61.6,29.34,SE,132,0.0,2.0,74,0.00,,,0.00,WUHU216DAVISVP2,2013-06-21 06:53:00,
2013-06-21 02:54:00,70.0,61.8,29.34,SE,132,0.0,2.0,75,0.00,,,0.00,WUHU216DAVISVP2,2013-06-21 06:54:00,
2013-06-21 02:55:00,70.0,61.8,29.34,SE,132,0.0,2.0,75,0.00,,,0.00,WUHU216DAVISVP2,2013-06-21 06:55:00,
2013-06-21 02:56:00,69.9,61.6,29.34,SE,132,0.0,2.0,75,0.00,,,0.00,WUHU216DAVISVP2,2013-06-21 06:56:00,
2013-06-21 02:57:00,69.9,61.6,29.34,SE,132,0.0,2.0,75,0.00,,,0.00,WUHU216DAVISVP2,2013-06-21 06:57:00,
2013-06-21 02:58:00,69.9,61.6,29.34,SE,132,1.0,2.0,75,0.00,,,0.00,WUHU216DAVISVP2,2013-06-21 06:58:00,
2013-06-21 02:59:00,69.8,61.5,29.34,SE,132,0.0,2.0,75,0.00,,,0.00,WUHU216DAVISVP2,2013-06-21 06:59:00,
2013-06-21 03:00:00,69.8,61.5,29.34,SE,132,0.0,2.0,75,0.00,,,0.00,WUHU216DAVISVP2,2013-06-21 07:00:00,
2013-06-21 03:01:00,69.7,61.6,29.34,SE,133,1.0,2.0,75,0.00,,,0.00,WUHU216DAVISVP2,2013-06-21 07:01:00,
2013-06-21 03:03:00,69.7,61.6,29.34,SE,133,0.0,2.0,75,0.00,,,0.00,WUHU216DAVISVP2,2013-06-21 07:03:00,
2013-06-21 03:05:00,69.6,61.3,29.34,SE,133,0.0,2.0,75,0.00,,,0.00,WUHU216DAVISVP2,2013-06-21 07:05:00,
2013-06-21 03:07:00,69.5,61.2,29.34,SE,133,1.0,2.0,75,0.00,,,0.00,WUHU216DAVISVP2,2013-06-21 07:07:00,
2013-06-21 03:08:00,69.5,61.2,29.34,SE,133,0.0,2.0,75,0.00,,,0.00,WUHU216DAVISVP2,2013-06-21 07:08:00,
2013-06-21 03:09:00,69.4,61.1,29.34,SE,133,0.0,2.0,75,0.00,,,0.00,WUHU216DAVISVP2,2013-06-21 07:09:00,
2013-06-21 03:10:00,69.4,61.1,29.34,SE,133,0.0,2.0,75,0.00,,,0.00,WUHU216DAVISVP2,2013-06-21 07:10:00,
2013-06-21 03:11:00,69.4,61.5,29.35,SE,133,2.0,2.0,76,0.00,,,0.00,WUHU216DAVISVP2,2013-06-21 07:11:00,
2013-06-21 03:12:00,69.4,61.5,29.35,SE,133,1.0,4.0,76,0.00,,,0.00,WUHU216DAVISVP2,2013-06-21 07:12:00,
2013-06-21 03:13:00,69.3,61.5,29.35,SE,133,2.0,4.0,76,0.00,,,0.00,WUHU216DAVISVP2,2013-06-21 07:13:00,
2013-06-21 03:14:00,69.3,61.5,29.35,SE,133,2.0,4.0,76,0.00,,,0.00,WUHU216DAVISVP2,2013-06-21 07:14:00,
2013-06-21 03:15:00,69.3,61.5,29.34,SE,133,1.0,4.0,76,0.00,,,0.00,WUHU216DAVISVP2,2013-06-21 07:15:00,
2013-06-21 03:16:00,69.2,61.3,29.34,SE,133,0.0,4.0,76,0.00,,,0.00,WUHU216DAVISVP2,2013-06-21 07:16:00,
2013-06-21 03:17:00,69.2,61.3,29.34,South,179,0.0,4.0,76,0.00,,,0.00,WUHU216DAVISVP2,2013-06-21 07:17:00,
2013-06-21 03:18:00,69.2,61.3,29.34,South,179,0.0,4.0,76,0.00,,,0.00,WUHU216DAVISVP2,2013-06-21 07:18:00,
2013-06-21 03:20:00,69.2,61.3,29.34,South,179,0.0,4.0,76,0.00,,,0.00,WUHU216DAVISVP2,2013-06-21 07:20:00,
2013-06-21 03:21:00,69.2,61.3,29.34,South,179,0.0,4.0,76,0.00,,,0.00,WUHU216DAVISVP2,2013-06-21 07:21:00,
2013-06-21 03:23:00,69.1,61.6,29.35,South,179,0.0,4.0,77,0.00,,,0.00,WUHU216DAVISVP2,2013-06-21 07:23:00,
2013-06-21 03:25:00,69.0,61.5,29.35,South,179,0.0,4.0,77,0.00,,,0.00,WUHU216DAVISVP2,2013-06-21 07:25:00,
2013-06-21 03:26:00,69.0,61.5,29.35,South,179,0.0,4.0,77,0.00,,,0.00,WUHU216DAVISVP2,2013-06-21 07:26:00,
2013-06-21 03:28:00,68.9,61.4,29.34,South,179,0.0,4.0,77,0.00,,,0.00,WUHU216DAVISVP2,2013-06-21 07:28:00,
2013-06-21 03:30:00,68.8,61.3,29.34,South,179,0.0,4.0,77,0.00,,,0.00,WUHU216DAVISVP2,2013-06-21 07:30:00,
2013-06-21 03:31:00,68.8,61.3,29.34,South,179,0.0,4.0,77,0.00,,,0.00,WUHU216DAVISVP2,2013-06-21 07:31:00,
2013-06-21 03:32:00,68.8,61.4,29.35,South,179,0.0,4.0,77,0.00,,,0.00,WUHU216DAVISVP2,2013-06-21 07:32:00,
2013-06-21 03:33:00,68.8,61.4,29.35,South,179,0.0,4.0,77,0.00,,,0.00,WUHU216DAVISVP2,2013-06-21 07:33:00,
2013-06-21 03:35:00,68.8,61.4,29.35,South,179,0.0,2.0,77,0.00,,,0.00,WUHU216DAVISVP2,2013-06-21 07:35:00,
2013-06-21 03:36:00,68.8,61.4,29.35,South,179,0.0,2.0,77,0.00,,,0.00,WUHU216DAVISVP2,2013-06-21 07:36:00,
2013-06-21 03:37:00,68.8,61.3,29.34,South,179,0.0,2.0,77,0.00,,,0.00,WUHU216DAVISVP2,2013-06-21 07:37:00,
2013-06-21 03:38:00,68.8,61.3,29.34,South,179,0.0,2.0,77,0.00,,,0.00,WUHU216DAVISVP2,2013-06-21 07:38:00,
2013-06-21 03:40:00,68.8,61.3,29.34,South,179,0.0,2.0,77,0.00,,,0.00,WUHU216DAVISVP2,2013-06-21 07:40:00,
2013-06-21 03:41:00,68.8,61.3,29.34,South,179,0.0,2.0,77,0.00,,,0.00,WUHU216DAVISVP2,2013-06-21 07:41:00,
2013-06-21 03:42:00,68.8,61.3,29.34,South,179,0.0,2.0,77,0.00,,,0.00,WUHU216DAVISVP2,2013-06-21 07:42:00,
2013-06-21 03:43:00,68.8,61.3,29.35,South,179,0.0,2.0,77,0.00,,,0.00,WUHU216DAVISVP2,2013-06-21 07:43:00,
2013-06-21 03:44:00,68.8,61.3,29.34,South,179,0.0,2.0,77,0.00,,,0.00,WUHU216DAVISVP2,2013-06-21 07:44:00,
2013-06-21 03:45:00,68.8,61.3,29.34,South,179,1.0,2.0,77,0.00,,,0.00,WUHU216DAVISVP2,2013-06-21 07:45:00,
2013-06-21 03:46:00,68.7,61.2,29.34,South,179,0.0,2.0,77,0.00,,,0.00,WUHU216DAVISVP2,2013-06-21 07:46:00,
2013-06-21 03:47:00,68.7,61.2,29.34,South,179,0.0,2.0,77,0.00,,,0.00,WUHU216DAVISVP2,2013-06-21 07:47:00,
2013-06-21 03:48:00,68.6,61.1,29.34,South,179,0.0,2.0,77,0.00,,,0.00,WUHU216DAVISVP2,2013-06-21 07:48:00,
2013-06-21 03:49:00,68.6,61.1,29.34,South,179,1.0,2.0,77,0.00,,,0.00,WUHU216DAVISVP2,2013-06-21 07:49:00,
2013-06-21 03:50:00,68.6,61.2,29.34,South,179,1.0,2.0,77,0.00,,,0.00,WUHU216DAVISVP2,2013-06-21 07:50:00,
2013-06-21 03:51:00,68.5,61.1,29.34,South,179,2.0,2.0,77,0.00,,,0.00,WUHU216DAVISVP2,2013-06-21 07:51:00,
2013-06-21 03:52:00,68.5,61.5,29.34,South,179,1.0,2.0,78,0.00,,,0.00,WUHU216DAVISVP2,2013-06-21 07:52:00,
2013-06-21 03:53:00,68.4,61.4,29.34,South,179,0.0,2.0,78,0.00,,,0.00,WUHU216DAVISVP2,2013-06-21 07:53:00,
2013-06-21 03:54:00,68.4,61.4,29.34,South,179,0.0,2.0,78,0.00,,,0.00,WUHU216DAVISVP2,2013-06-21 07:54:00,
2013-06-21 03:56:00,68.2,61.1,29.34,South,179,0.0,2.0,78,0.00,,,0.00,WUHU216DAVISVP2,2013-06-21 07:56:00,
2013-06-21 03:57:00,68.2,61.1,29.34,South,179,0.0,2.0,78,0.00,,,0.00,WUHU216DAVISVP2,2013-06-21 07:57:00,
2013-06-21 03:58:00,68.1,61.0,29.34,South,179,1.0,2.0,78,0.00,,,0.00,WUHU216DAVISVP2,2013-06-21 07:58:00,
2013-06-21 03:59:00,68.1,61.3,29.34,South,179,0.0,2.0,79,0.00,,,0.00,WUHU216DAVISVP2,2013-06-21 07:59:00,
2013-06-21 04:01:00,67.9,61.1,29.34,South,179,2.0,4.0,79,0.00,,,0.00,WUHU216DAVISVP2,2013-06-21 08:01:00,
2013-06-21 04:02:00,67.9,61.1,29.34,South,179,0.0,4.0,79,0.00,,,0.00,WUHU216DAVISVP2,2013-06-21 08:02:00,
2013-06-21 04:03:00,67.9,61.1,29.34,South,179,2.0,4.0,79,0.00,,,0.00,WUHU216DAVISVP2,2013-06-21 08:03:00,
2013-06-21 04:04:00,67.8,61.0,29.34,South,179,0.0,4.0,79,0.00,,,0.00,WUHU216DAVISVP2,2013-06-21 08:04:00,
2013-06-21 04:07:00,67.7,61.3,29.34,South,179,0.0,4.0,80,0.00,,,0.00,WUHU216DAVISVP2,2013-06-21 08:07:00,
2013-06-21 04:08:00,67.6,60.9,29.34,South,179,0.0,4.0,79,0.00,,,0.00,WUHU216DAVISVP2,2013-06-21 08:08:00,
2013-06-21 04:09:00,67.6,61.2,29.34,South,179,2.0,4.0,80,0.00,,,0.00,WUHU216DAVISVP2,2013-06-21 08:09:00,
2013-06-21 04:12:00,67.4,61.1,29.34,South,179,0.0,4.0,80,0.00,,,0.00,WUHU216DAVISVP2,2013-06-21 08:12:00,
2013-06-21 04:13:00,67.4,61.1,29.34,South,179,0.0,4.0,80,0.00,,,0.00,WUHU216DAVISVP2,2013-06-21 08:13:00,
2013-06-21 04:14:00,67.4,61.1,29.34,South,187,0.0,4.0,80,0.00,,,0.00,WUHU216DAVISVP2,2013-06-21 08:14:00,
2013-06-21 04:15:00,67.3,60.9,29.34,South,187,0.0,4.0,80,0.00,,,0.00,WUHU216DAVISVP2,2013-06-21 08:15:00,
2013-06-21 04:17:00,67.3,61.3,29.34,South,187,1.0,4.0,81,0.00,,,0.00,WUHU216DAVISVP2,2013-06-21 08:17:00,
2013-06-21 04:18:00,67.3,60.9,29.34,South,187,1.0,4.0,80,0.00,,,0.00,WUHU216DAVISVP2,2013-06-21 08:18:00,
2013-06-21 04:19:00,67.3,61.0,29.34,South,187,3.0,3.0,80,0.00,,,0.00,WUHU216DAVISVP2,2013-06-21 08:19:00,
2013-06-21 04:20:00,67.3,61.0,29.34,South,187,1.0,4.0,80,0.00,,,0.00,WUHU216DAVISVP2,2013-06-21 08:20:00,
2013-06-21 04:22:00,67.3,61.0,29.34,South,187,3.0,5.0,80,0.00,,,0.00,WUHU216DAVISVP2,2013-06-21 08:22:00,
2013-06-21 04:24:00,67.4,61.1,29.34,SSW,213,2.0,5.0,80,0.00,,,0.00,WUHU216DAVISVP2,2013-06-21 08:24:00,
2013-06-21 04:25:00,67.4,61.1,29.34,SSW,206,0.0,5.0,80,0.00,,,0.00,WUHU216DAVISVP2,2013-06-21 08:25:00,
2013-06-21 04:27:00,67.5,61.1,29.34,SW,218,4.0,6.0,80,0.00,,,0.00,WUHU216DAVISVP2,2013-06-21 08:27:00,
2013-06-21 04:29:00,67.5,61.1,29.34,SSW,201,0.0,6.0,80,0.00,,,0.00,WUHU216DAVISVP2,2013-06-21 08:29:00,
2013-06-21 04:30:00,67.5,60.8,29.34,SSW,197,2.0,6.0,79,0.00,,,0.00,WUHU216DAVISVP2,2013-06-21 08:30:00,
2013-06-21 04:31:00,67.5,60.8,29.34,South,183,5.0,6.0,79,0.00,,,0.00,WUHU216DAVISVP2,2013-06-21 08:31:00,
2013-06-21 04:33:00,67.6,60.9,29.34,SSW,208,4.0,6.0,79,0.00,,,0.00,WUHU216DAVISVP2,2013-06-21 08:33:00,
2013-06-21 04:34:00,67.6,60.9,29.34,South,181,4.0,6.0,79,0.00,,,0.00,WUHU216DAVISVP2,2013-06-21 08:34:00,
2013-06-21 04:36:00,67.7,61.0,29.34,South,186,2.0,6.0,79,0.00,,,0.00,WUHU216DAVISVP2,2013-06-21 08:36:00,
2013-06-21 04:38:00,67.7,61.0,29.33,SSW,196,2.0,6.0,79,0.00,,,0.00,WUHU216DAVISVP2,2013-06-21 08:38:00,
2013-06-21 04:39:00,67.7,61.0,29.33,SSW,195,2.0,6.0,79,0.00,,,0.00,WUHU216DAVISVP2,2013-06-21 08:39:00,
2013-06-21 04:41:00,67.7,61.0,29.33,SSW,197,1.0,6.0,79,0.00,,,0.00,WUHU216DAVISVP2,2013-06-21 08:41:00,
2013-06-21 04:42:00,67.7,61.0,29.33,South,189,2.0,6.0,79,0.00,,,0.00,WUHU216DAVISVP2,2013-06-21 08:42:00,
2013-06-21 04:43:00,67.7,61.0,29.33,SSW,208,1.0,6.0,79,0.00,,,0.00,WUHU216DAVISVP2,2013-06-21 08:43:00,
2013-06-21 04:44:00,67.6,60.9,29.33,South,188,2.0,6.0,79,0.00,,,0.00,WUHU216DAVISVP2,2013-06-21 08:44:00,
2013-06-21 04:46:00,67.7,61.0,29.33,SSW,202,2.0,6.0,79,0.00,,,0.00,WUHU216DAVISVP2,2013-06-21 08:46:00,
2013-06-21 04:47:00,67.7,61.0,29.33,South,188,3.0,6.0,79,0.00,,,0.00,WUHU216DAVISVP2,2013-06-21 08:47:00,
2013-06-21 04:48:00,67.7,60.6,29.33,South,189,1.0,6.0,78,0.00,,,0.00,WUHU216DAVISVP2,2013-06-21 08:48:00,
2013-06-21 04:49:00,67.7,60.6,29.33,SSW,197,0.0,6.0,78,0.00,,,0.00,WUHU216DAVISVP2,2013-06-21 08:49:00,
2013-06-21 04:50:00,67.7,60.6,29.33,SSW,197,0.0,6.0,78,0.00,,,0.00,WUHU216DAVISVP2,2013-06-21 08:50:00,
2013-06-21 04:51:00,67.7,60.6,29.34,SSW,197,0.0,6.0,78,0.00,,,0.00,WUHU216DAVISVP2,2013-06-21 08:51:00,
2013-06-21 04:52:00,67.7,60.6,29.34,SSW,197,1.0,6.0,78,0.00,,,0.00,WUHU216DAVISVP2,2013-06-21 08:52:00,
2013-06-21 04:53:00,67.7,60.6,29.34,SSW,203,0.0,6.0,78,0.00,,,0.00,WUHU216DAVISVP2,2013-06-21 08:53:00,
2013-06-21 04:54:00,67.7,60.7,29.34,SSW,195,1.0,6.0,78,0.00,,,0.00,WUHU216DAVISVP2,2013-06-21 08:54:00,
2013-06-21 04:55:00,67.8,60.7,29.34,SW,221,4.0,6.0,78,0.00,,,0.00,WUHU216DAVISVP2,2013-06-21 08:55:00,
2013-06-21 04:56:00,67.8,60.7,29.34,SSW,206,1.0,6.0,78,0.00,,,0.00,WUHU216DAVISVP2,2013-06-21 08:56:00,
2013-06-21 04:57:00,67.8,60.7,29.34,SSW,206,1.0,6.0,78,0.00,,,0.00,WUHU216DAVISVP2,2013-06-21 08:57:00,
2013-06-21 04:58:00,67.8,60.3,29.34,SSW,207,0.0,5.0,77,0.00,,,0.00,WUHU216DAVISVP2,2013-06-21 08:58:00,
2013-06-21 04:59:00,67.9,60.4,29.34,SSW,208,0.0,5.0,77,0.00,,,0.00,WUHU216DAVISVP2,2013-06-21 08:59:00,
2013-06-21 05:00:00,67.8,60.4,29.34,SW,214,1.0,5.0,77,0.00,,,0.00,WUHU216DAVISVP2,2013-06-21 09:00:00,
2013-06-21 05:02:00,67.9,60.5,29.34,SW,214,1.0,6.0,77,0.00,,,0.00,WUHU216DAVISVP2,2013-06-21 09:02:00,
2013-06-21 05:03:00,67.9,60.4,29.34,SSW,211,0.0,6.0,77,0.00,,,0.00,WUHU216DAVISVP2,2013-06-21 09:03:00,
2013-06-21 05:04:00,67.9,60.4,29.34,SSW,211,0.0,6.0,77,0.00,,,0.00,WUHU216DAVISVP2,2013-06-21 09:04:00,
2013-06-21 05:06:00,67.9,60.4,29.34,SSW,211,0.0,6.0,77,0.00,,,0.00,WUHU216DAVISVP2,2013-06-21 09:06:00,
2013-06-21 05:07:00,67.9,60.4,29.34,SSW,211,1.0,6.0,77,0.00,,,0.00,WUHU216DAVISVP2,2013-06-21 09:07:00,
2013-06-21 05:09:00,67.9,60.4,29.34,WSW,244,5.0,6.0,77,0.00,,,0.00,WUHU216DAVISVP2,2013-06-21 09:09:00,
2013-06-21 05:11:00,67.9,60.5,29.35,SW,234,1.0,6.0,77,0.00,,,0.00,WUHU216DAVISVP2,2013-06-21 09:11:00,
2013-06-21 05:12:00,67.9,60.5,29.35,SW,233,2.0,6.0,77,0.00,,,0.00,WUHU216DAVISVP2,2013-06-21 09:12:00,
2013-06-21 05:14:00,67.9,60.5,29.35,SSW,197,0.0,6.0,77,0.00,,,0.00,WUHU216DAVISVP2,2013-06-21 09:14:00,
2013-06-21 05:16:00,67.9,60.5,29.34,SSW,203,1.0,8.0,77,0.00,,,0.00,WUHU216DAVISVP2,2013-06-21 09:16:00,
2013-06-21 05:18:00,68.0,60.2,29.34,SSW,212,0.0,8.0,76,0.00,,,0.00,WUHU216DAVISVP2,2013-06-21 09:18:00,
2013-06-21 05:19:00,68.0,60.2,29.34,SSW,206,0.0,8.0,76,0.00,,,0.00,WUHU216DAVISVP2,2013-06-21 09:19:00,
2013-06-21 05:22:00,68.0,60.2,29.34,SW,225,0.0,8.0,76,0.00,,,0.00,WUHU216DAVISVP2,2013-06-21 09:22:00,
2013-06-21 05:23:00,68.0,60.2,29.34,SSW,199,3.0,8.0,76,0.00,,,0.00,WUHU216DAVISVP2,2013-06-21 09:23:00,
2013-06-21 05:24:00,68.0,60.2,29.34,SSW,211,5.0,8.0,76,0.00,,,0.00,WUHU216DAVISVP2,2013-06-21 09:24:00,
2013-06-21 05:27:00,67.9,60.1,29.34,SW,227,1.0,8.0,76,0.00,,,0.00,WUHU216DAVISVP2,2013-06-21 09:27:00,
2013-06-21 05:28:00,67.9,60.1,29.34,SSW,204,2.0,8.0,76,0.00,,,0.00,WUHU216DAVISVP2,2013-06-21 09:28:00,
2013-06-21 05:30:00,67.9,60.2,29.34,SW,214,2.0,8.0,76,0.00,,,0.00,WUHU216DAVISVP2,2013-06-21 09:30:00,
2013-06-21 05:32:00,67.9,60.2,29.34,SSW,197,3.0,8.0,76,0.00,,,0.00,WUHU216DAVISVP2,2013-06-21 09:32:00,
2013-06-21 05:33:00,67.9,60.2,29.34,SSW,208,0.0,8.0,76,0.00,,,0.00,WUHU216DAVISVP2,2013-06-21 09:33:00,
2013-06-21 05:34:00,67.8,60.4,29.34,SSW,208,2.0,7.0,77,0.00,,,0.00,WUHU216DAVISVP2,2013-06-21 09:34:00,
2013-06-21 05:35:00,67.8,60.4,29.34,SSW,202,2.0,7.0,77,0.00,,,0.00,WUHU216DAVISVP2,2013-06-21 09:35:00,
2013-06-21 05:37:00,67.7,60.3,29.34,SSW,196,1.0,7.0,77,0.00,,,0.00,WUHU216DAVISVP2,2013-06-21 09:37:00,
2013-06-21 05:38:00,67.7,60.2,29.34,SSW,199,2.0,7.0,77,0.00,,,0.00,WUHU216DAVISVP2,2013-06-21 09:38:00,
2013-06-21 05:39:00,67.7,60.2,29.34,SSW,199,1.0,7.0,77,0.00,,,0.00,WUHU216DAVISVP2,2013-06-21 09:39:00,
2013-06-21 05:40:00,67.7,60.2,29.34,SW,216,3.0,7.0,77,0.00,,,0.00,WUHU216DAVISVP2,2013-06-21 09:40:00,
2013-06-21 05:42:00,67.6,60.1,29.34,SW,216,0.0,7.0,77,0.00,,,0.00,WUHU216DAVISVP2,2013-06-21 09:42:00,
2013-06-21 05:44:00,67.6,60.1,29.34,SW,218,4.0,7.0,77,0.00,,,0.00,WUHU216DAVISVP2,2013-06-21 09:44:00,
2013-06-21 05:45:00,67.6,60.5,29.34,SW,218,1.0,7.0,78,0.00,,,0.00,WUHU216DAVISVP2,2013-06-21 09:45:00,
2013-06-21 05:47:00,67.5,60.4,29.34,SW,218,0.0,7.0,78,0.00,,,0.00,WUHU216DAVISVP2,2013-06-21 09:47:00,
2013-06-21 05:49:00,67.5,60.4,29.34,SW,221,6.0,7.0,78,0.00,,,0.00,WUHU216DAVISVP2,2013-06-21 09:49:00,
2013-06-21 05:50:00,67.4,60.3,29.35,SW,221,2.0,7.0,78,0.00,,,0.00,WUHU216DAVISVP2,2013-06-21 09:50:00,
2013-06-21 05:51:00,67.4,60.3,29.35,SW,222,6.0,7.0,78,0.00,,,0.00,WUHU216DAVISVP2,2013-06-21 09:51:00,
2013-06-21 05:53:00,67.4,60.4,29.35,SW,222,1.0,7.0,78,0.00,,,0.00,WUHU216DAVISVP2,2013-06-21 09:53:00,
2013-06-21 05:54:00,67.4,60.4,29.35,SW,222,0.0,7.0,78,0.00,,,0.00,WUHU216DAVISVP2,2013-06-21 09:54:00,
2013-06-21 05:55:00,67.4,60.4,29.35,SW,225,6.0,7.0,78,0.00,,,0.00,WUHU216DAVISVP2,2013-06-21 09:55:00,
2013-06-21 05:56:00,67.4,60.4,29.35,SW,236,1.0,9.0,78,0.00,,,0.00,WUHU216DAVISVP2,2013-06-21 09:56:00,
2013-06-21 05:58:00,67.4,60.3,29.35,SW,217,1.0,9.0,78,0.00,,,0.00,WUHU216DAVISVP2,2013-06-21 09:58:00,
2013-06-21 06:00:00,67.5,60.4,29.35,WSW,242,1.0,9.0,78,0.00,,,0.00,WUHU216DAVISVP2,2013-06-21 10:00:00,
2013-06-21 06:01:00,67.4,60.3,29.35,SSW,211,2.0,9.0,78,0.00,,,0.00,WUHU216DAVISVP2,2013-06-21 10:01:00,
2013-06-21 06:03:00,67.5,60.0,29.35,SW,219,4.0,9.0,77,0.00,,,0.00,WUHU216DAVISVP2,2013-06-21 10:03:00,
2013-06-21 06:05:00,67.4,60.3,29.35,SSW,204,5.0,9.0,78,0.00,,,0.00,WUHU216DAVISVP2,2013-06-21 10:05:00,
2013-06-21 06:06:00,67.4,59.9,29.35,SSW,200,4.0,9.0,77,0.00,,,0.00,WUHU216DAVISVP2,2013-06-21 10:06:00,
2013-06-21 06:08:00,67.4,59.9,29.35,SSW,205,0.0,9.0,77,0.00,,,0.00,WUHU216DAVISVP2,2013-06-21 10:08:00,
2013-06-21 06:10:00,67.3,60.2,29.35,SSW,210,1.0,9.0,78,0.00,,,0.00,WUHU216DAVISVP2,2013-06-21 10:10:00,
2013-06-21 06:11:00,67.3,60.2,29.35,SSW,208,4.0,9.0,78,0.00,,,0.00,WUHU216DAVISVP2,2013-06-21 10:11:00,
2013-06-21 06:13:00,67.2,60.2,29.35,SSW,206,1.0,9.0,78,0.00,,,0.00,WUHU216DAVISVP2,2013-06-21 10:13:00,
2013-06-21 06:15:00,67.2,60.2,29.35,SSW,205,1.0,9.0,78,0.00,,,0.00,WUHU216DAVISVP2,2013-06-21 10:15:00,
2013-06-21 06:16:00,67.1,60.1,29.35,SSW,205,0.0,7.0,78,0.00,,,0.00,WUHU216DAVISVP2,2013-06-21 10:16:00,
2013-06-21 06:19:00,67.0,59.9,29.34,SSW,204,6.0,7.0,78,0.00,,,0.00,WUHU216DAVISVP2,2013-06-21 10:19:00,
2013-06-21 06:20:00,67.0,59.9,29.34,SSW,203,1.0,7.0,78,0.00,,,0.00,WUHU216DAVISVP2,2013-06-21 10:20:00,
2013-06-21 06:21:00,67.0,59.9,29.35,SSW,203,3.0,7.0,78,0.00,,,0.00,WUHU216DAVISVP2,2013-06-21 10:21:00,
2013-06-21 06:22:00,67.0,59.9,29.35,SSW,203,3.0,7.0,78,0.00,,,0.00,WUHU216DAVISVP2,2013-06-21 10:22:00,
2013-06-21 06:24:00,67.0,59.9,29.35,SSW,203,1.0,6.0,78,0.00,,,0.00,WUHU216DAVISVP2,2013-06-21 10:24:00,
2013-06-21 06:25:00,67.0,59.9,29.35,SSW,203,2.0,6.0,78,0.00,,,0.00,WUHU216DAVISVP2,2013-06-21 10:25:00,
2013-06-21 06:26:00,67.0,59.9,29.35,SSW,200,4.0,6.0,78,0.00,,,0.00,WUHU216DAVISVP2,2013-06-21 10:26:00,
2013-06-21 06:27:00,67.0,59.9,29.35,SSW,205,0.0,6.0,78,0.00,,,0.00,WUHU216DAVISVP2,2013-06-21 10:27:00,
2013-06-21 06:29:00,67.0,60.0,29.35,SW,218,1.0,7.0,78,0.00,,,0.00,WUHU216DAVISVP2,2013-06-21 10:29:00,
2013-06-21 06:30:00,67.0,60.0,29.35,SSW,200,0.0,7.0,78,0.00,,,0.00,WUHU216DAVISVP2,2013-06-21 10:30:00,
2013-06-21 06:31:00,67.0,60.0,29.35,SSW,206,2.0,7.0,78,0.00,,,0.00,WUHU216DAVISVP2,2013-06-21 10:31:00,
2013-06-21 06:32:00,67.0,60.0,29.35,SSW,206,0.0,7.0,78,0.00,,,0.00,WUHU216DAVISVP2,2013-06-21 10:32:00,
2013-06-21 06:34:00,67.0,60.0,29.35,SSW,202,5.0,7.0,78,0.00,,,0.00,WUHU216DAVISVP2,2013-06-21 10:34:00,
2013-06-21 06:35:00,67.1,60.1,29.35,SSW,199,0.0,7.0,78,0.00,,,0.00,WUHU216DAVISVP2,2013-06-21 10:35:00,
2013-06-21 06:36:00,67.1,60.1,29.35,SSW,199,4.0,7.0,78,0.00,,,0.00,WUHU216DAVISVP2,2013-06-21 10:36:00,
2013-06-21 06:37:00,67.0,60.0,29.35,SSW,203,1.0,7.0,78,0.00,,,0.00,WUHU216DAVISVP2,2013-06-21 10:37:00,
2013-06-21 06:40:00,67.1,60.0,29.35,SSW,204,1.0,7.0,78,0.00,,,0.00,WUHU216DAVISVP2,2013-06-21 10:40:00,
2013-06-21 06:41:00,67.1,60.0,29.35,SSW,204,4.0,7.0,78,0.00,,,0.00,WUHU216DAVISVP2,2013-06-21 10:41:00,
2013-06-21 06:42:00,67.1,60.0,29.35,SSW,204,2.0,7.0,78,0.00,,,0.00,WUHU216DAVISVP2,2013-06-21 10:42:00,
2013-06-21 06:45:00,67.2,60.1,29.35,SSW,208,0.0,7.0,78,0.00,,,0.00,WUHU216DAVISVP2,2013-06-21 10:45:00,
2013-06-21 06:46:00,67.2,60.1,29.35,SW,227,1.0,7.0,78,0.00,,,0.00,WUHU216DAVISVP2,2013-06-21 10:46:00,
2013-06-21 06:47:00,67.2,60.1,29.35,SW,225,4.0,7.0,78,0.00,,,0.00,WUHU216DAVISVP2,2013-06-21 10:47:00,
2013-06-21 06:50:00,67.2,60.1,29.35,SSW,199,1.0,6.0,78,0.00,,,0.00,WUHU216DAVISVP2,2013-06-21 10:50:00,
2013-06-21 06:51:00,67.2,60.1,29.35,SSW,202,1.0,6.0,78,0.00,,,0.00,WUHU216DAVISVP2,2013-06-21 10:51:00,
2013-06-21 06:52:00,67.2,60.1,29.35,SSW,202,0.0,6.0,78,0.00,,,0.00,WUHU216DAVISVP2,2013-06-21 10:52:00,
2013-06-21 06:53:00,67.2,60.1,29.35,SSW,202,2.0,6.0,78,0.00,,,0.00,WUHU216DAVISVP2,2013-06-21 10:53:00,
2013-06-21 06:56:00,67.2,59.9,29.35,SSW,205,1.0,7.0,77,0.00,,,0.00,WUHU216DAVISVP2,2013-06-21 10:56:00,
2013-06-21 06:57:00,67.2,60.2,29.35,SSW,207,4.0,7.0,78,0.00,,,0.00,WUHU216DAVISVP2,2013-06-21 10:57:00,
2013-06-21 06:58:00,67.3,59.8,29.35,SSW,202,3.0,7.0,77,0.00,,,0.00,WUHU216DAVISVP2,2013-06-21 10:58:00,
2013-06-21 07:01:00,67.3,59.8,29.34,SSW,208,2.0,7.0,77,0.00,,,0.00,WUHU216DAVISVP2,2013-06-21 11:01:00,
2013-06-21 07:02:00,67.3,59.8,29.35,SSW,198,0.0,7.0,77,0.00,,,0.00,WUHU216DAVISVP2,2013-06-21 11:02:00,
2013-06-21 07:03:00,67.3,59.8,29.34,South,187,7.0,7.0,77,0.00,,,0.00,WUHU216DAVISVP2,2013-06-21 11:03:00,
2013-06-21 07:06:00,67.3,59.8,29.34,SSW,203,2.0,7.0,77,0.00,,,0.00,WUHU216DAVISVP2,2013-06-21 11:06:00,
2013-06-21 07:07:00,67.3,59.8,29.35,SSW,207,1.0,7.0,77,0.00,,,0.00,WUHU216DAVISVP2,2013-06-21 11:07:00,
2013-06-21 07:08:00,67.3,59.8,29.35,SSW,208,2.0,7.0,77,0.00,,,0.00,WUHU216DAVISVP2,2013-06-21 11:08:00,
2013-06-21 07:11:00,67.3,60.3,29.35,SW,222,5.0,8.0,78,0.00,,,0.00,WUHU216DAVISVP2,2013-06-21 11:11:00,
2013-06-21 07:12:00,67.4,60.0,29.35,South,191,0.0,8.0,77,0.00,,,0.00,WUHU216DAVISVP2,2013-06-21 11:12:00,
2013-06-21 07:13:00,67.4,60.0,29.35,South,181,4.0,8.0,77,0.00,,,0.00,WUHU216DAVISVP2,2013-06-21 11:13:00,
2013-06-21 07:16:00,67.5,60.1,29.35,SSW,211,5.0,8.0,77,0.00,,,0.00,WUHU216DAVISVP2,2013-06-21 11:16:00,
2013-06-21 07:17:00,67.5,60.1,29.35,SSW,192,2.0,8.0,77,0.00,,,0.00,WUHU216DAVISVP2,2013-06-21 11:17:00,
2013-06-21 07:18:00,67.6,60.2,29.35,SSW,197,2.0,8.0,77,0.00,,,0.00,WUHU216DAVISVP2,2013-06-21 11:18:00,
2013-06-21 07:21:00,67.6,60.2,29.35,SW,226,5.0,9.0,77,0.00,,,0.00,WUHU216DAVISVP2,2013-06-21 11:21:00,
2013-06-21 07:22:00,67.6,60.2,29.35,SSW,194,4.0,9.0,77,0.00,,,0.00,WUHU216DAVISVP2,2013-06-21 11:22:00,
2013-06-21 07:23:00,67.7,60.3,29.35,SW,219,1.0,9.0,77,0.00,,,0.00,WUHU216DAVISVP2,2013-06-21 11:23:00,
2013-06-21 07:26:00,67.8,60.1,29.35,SSW,193,5.0,9.0,76,0.00,,,0.00,WUHU216DAVISVP2,2013-06-21 11:26:00,
2013-06-21 07:27:00,67.9,60.2,29.35,SW,216,2.0,9.0,76,0.00,,,0.00,WUHU216DAVISVP2,2013-06-21 11:27:00,
2013-06-21 07:28:00,67.9,60.2,29.35,SW,219,1.0,9.0,76,0.00,,,0.00,WUHU216DAVISVP2,2013-06-21 11:28:00,
2013-06-21 07:29:00,67.9,60.2,29.35,SW,232,6.0,11.0,76,0.00,,,0.00,WUHU216DAVISVP2,2013-06-21 11:29:00,
2013-06-21 07:31:00,68.0,60.3,29.35,SW,214,0.0,11.0,76,0.00,,,0.00,WUHU216DAVISVP2,2013-06-21 11:31:00,
2013-06-21 07:32:00,68.1,60.4,29.35,SW,222,1.0,11.0,76,0.00,,,0.00,WUHU216DAVISVP2,2013-06-21 11:32:00,
2013-06-21 07:33:00,68.1,60.4,29.35,SW,219,2.0,11.0,76,0.00,,,0.00,WUHU216DAVISVP2,2013-06-21 11:33:00,
2013-06-21 07:34:00,68.1,60.4,29.35,SW,220,3.0,11.0,76,0.00,,,0.00,WUHU216DAVISVP2,2013-06-21 11:34:00,
2013-06-21 07:36:00,68.2,60.3,29.35,SW,222,4.0,11.0,76,0.00,,,0.00,WUHU216DAVISVP2,2013-06-21 11:36:00,
2013-06-21 07:37:00,68.3,60.4,29.35,SW,221,5.0,11.0,76,0.00,,,0.00,WUHU216DAVISVP2,2013-06-21 11:37:00,
2013-06-21 07:38:00,68.3,60.4,29.35,SW,223,6.0,11.0,76,0.00,,,0.00,WUHU216DAVISVP2,2013-06-21 11:38:00,
2013-06-21 07:39:00,68.3,60.4,29.35,SW,225,3.0,11.0,76,0.00,,,0.00,WUHU216DAVISVP2,2013-06-21 11:39:00,
2013-06-21 07:41:00,68.4,60.5,29.35,SSW,197,2.0,11.0,76,0.00,,,0.00,WUHU216DAVISVP2,2013-06-21 11:41:00,
2013-06-21 07:43:00,68.4,60.5,29.35,SW,218,4.0,11.0,76,0.00,,,0.00,WUHU216DAVISVP2,2013-06-21 11:43:00,
2013-06-21 07:44:00,68.4,60.2,29.35,SW,217,1.0,11.0,75,0.00,,,0.00,WUHU216DAVISVP2,2013-06-21 11:44:00,
2013-06-21 07:46:00,68.5,60.4,29.35,SSW,213,0.0,11.0,75,0.00,,,0.00,WUHU216DAVISVP2,2013-06-21 11:46:00,
2013-06-21 07:48:00,68.6,60.5,29.35,SSW,196,6.0,9.0,75,0.00,,,0.00,WUHU216DAVISVP2,2013-06-21 11:48:00,
2013-06-21 07:49:00,68.6,60.5,29.35,SSW,194,6.0,9.0,75,0.00,,,0.00,WUHU216DAVISVP2,2013-06-21 11:49:00,
2013-06-21 07:50:00,68.6,60.4,29.35,WSW,244,8.0,9.0,75,0.00,,,0.00,WUHU216DAVISVP2,2013-06-21 11:50:00,
2013-06-21 07:51:00,68.6,60.4,29.35,SSW,204,5.0,9.0,75,0.00,,,0.00,WUHU216DAVISVP2,2013-06-21 11:51:00,
2013-06-21 07:53:00,68.7,60.5,29.35,SW,233,8.0,9.0,75,0.00,,,0.00,WUHU216DAVISVP2,2013-06-21 11:53:00,
2013-06-21 07:54:00,68.7,60.5,29.35,SW,235,4.0,9.0,75,0.00,,,0.00,WUHU216DAVISVP2,2013-06-21 11:54:00,
2013-06-21 07:55:00,68.8,60.6,29.35,SSW,201,1.0,12.0,75,0.00,,,0.00,WUHU216DAVISVP2,2013-06-21 11:55:00,
2013-06-21 07:56:00,68.8,60.6,29.35,SW,222,1.0,12.0,75,0.00,,,0.00,WUHU216DAVISVP2,2013-06-21 11:56:00,
2013-06-21 07:58:00,68.9,60.8,29.35,SW,220,9.0,12.0,75,0.00,,,0.00,WUHU216DAVISVP2,2013-06-21 11:58:00,
2013-06-21 07:59:00,68.9,60.8,29.35,SSW,203,1.0,12.0,75,0.00,,,0.00,WUHU216DAVISVP2,2013-06-21 11:59:00,
2013-06-21 08:00:00,68.9,60.8,29.35,SW,216,4.0,12.0,75,0.00,,,0.00,WUHU216DAVISVP2,2013-06-21 12:00:00,
2013-06-21 08:02:00,69.0,60.9,29.35,SW,231,2.0,12.0,75,0.00,,,0.00,WUHU216DAVISVP2,2013-06-21 12:02:00,
2013-06-21 08:03:00,69.1,60.8,29.35,SW,220,1.0,12.0,75,0.00,,,0.00,WUHU216DAVISVP2,2013-06-21 12:03:00,
2013-06-21 08:04:00,69.1,60.8,29.35,SW,233,8.0,12.0,75,0.00,,,0.00,WUHU216DAVISVP2,2013-06-21 12:04:00,
2013-06-21 08:05:00,69.1,60.8,29.35,SW,222,0.0,12.0,75,0.00,,,0.00,WUHU216DAVISVP2,2013-06-21 12:05:00,
2013-06-21 08:07:00,69.2,60.9,29.35,SSW,197,1.0,12.0,75,0.00,,,0.00,WUHU216DAVISVP2,2013-06-21 12:07:00,
2013-06-21 08:08:00,69.3,60.7,29.36,SSW,210,1.0,12.0,74,0.00,,,0.00,WUHU216DAVISVP2,2013-06-21 12:08:00,
2013-06-21 08:09:00,69.3,60.7,29.36,South,191,5.0,12.0,74,0.00,,,0.00,WUHU216DAVISVP2,2013-06-21 12:09:00,
2013-06-21 08:10:00,69.4,60.8,29.36,SSW,201,1.0,12.0,74,0.00,,,0.00,WUHU216DAVISVP2,2013-06-21 12:10:00,
2013-06-21 08:12:00,69.5,60.8,29.36,SW,230,8.0,12.0,74,0.00,,,0.00,WUHU216DAVISVP2,2013-06-21 12:12:00,
2013-06-21 08:14:00,69.5,61.0,29.36,SSW,196,0.0,11.0,74,0.00,,,0.00,WUHU216DAVISVP2,2013-06-21 12:14:00,
2013-06-21 08:15:00,69.6,61.1,29.36,SSW,200,2.0,11.0,74,0.00,,,0.00,WUHU216DAVISVP2,2013-06-21 12:15:00,
2013-06-21 08:17:00,69.7,61.2,29.36,SSW,199,2.0,11.0,74,0.00,,,0.00,WUHU216DAVISVP2,2013-06-21 12:17:00,
2013-06-21 08:19:00,69.8,61.3,29.36,SW,224,2.0,10.0,74,0.00,,,0.00,WUHU216DAVISVP2,2013-06-21 12:19:00,
2013-06-21 08:20:00,69.9,61.4,29.36,South,185,10.0,10.0,74,0.00,,,0.00,WUHU216DAVISVP2,2013-06-21 12:20:00,
2013-06-21 08:23:00,70.1,61.6,29.36,SSW,201,4.0,10.0,74,0.00,,,0.00,WUHU216DAVISVP2,2013-06-21 12:23:00,
2013-06-21 08:24:00,70.1,61.6,29.36,WSW,241,5.0,10.0,74,0.00,,,0.00,WUHU216DAVISVP2,2013-06-21 12:24:00,
2013-06-21 08:25:00,70.2,61.7,29.36,SSE,168,2.0,10.0,74,0.00,,,0.00,WUHU216DAVISVP2,2013-06-21 12:25:00,
2013-06-21 08:28:00,70.3,61.6,29.36,SW,214,4.0,10.0,74,0.00,,,0.00,WUHU216DAVISVP2,2013-06-21 12:28:00,
2013-06-21 08:29:00,70.4,61.7,29.36,SSW,201,1.0,10.0,74,0.00,,,0.00,WUHU216DAVISVP2,2013-06-21 12:29:00,
2013-06-21 08:30:00,70.4,61.5,29.35,SW,215,6.0,10.0,73,0.00,,,0.00,WUHU216DAVISVP2,2013-06-21 12:30:00,
2013-06-21 08:31:00,70.4,61.5,29.35,SSW,204,0.0,10.0,73,0.00,,,0.00,WUHU216DAVISVP2,2013-06-21 12:31:00,
2013-06-21 08:34:00,70.6,62.1,29.35,South,172,7.0,10.0,74,0.00,,,0.00,WUHU216DAVISVP2,2013-06-21 12:34:00,
2013-06-21 08:35:00,70.7,61.8,29.36,SW,216,0.0,10.0,73,0.00,,,0.00,WUHU216DAVISVP2,2013-06-21 12:35:00,
2013-06-21 08:37:00,70.8,61.9,29.36,SSW,195,1.0,10.0,73,0.00,,,0.00,WUHU216DAVISVP2,2013-06-21 12:37:00,
2013-06-21 08:39:00,71.0,62.1,29.36,WSW,243,8.0,9.0,73,0.00,,,0.00,WUHU216DAVISVP2,2013-06-21 12:39:00,
2013-06-21 08:40:00,71.1,62.2,29.36,SSW,204,5.0,11.0,73,0.00,,,0.00,WUHU216DAVISVP2,2013-06-21 12:40:00,
2013-06-21 08:42:00,71.3,62.0,29.36,SW,231,1.0,11.0,72,0.00,,,0.00,WUHU216DAVISVP2,2013-06-21 12:42:00,
2013-06-21 08:45:00,71.5,62.2,29.36,SSW,212,0.0,11.0,72,0.00,,,0.00,WUHU216DAVISVP2,2013-06-21 12:45:00,
2013-06-21 08:47:00,71.7,62.4,29.36,South,189,7.0,11.0,72,0.00,,,0.00,WUHU216DAVISVP2,2013-06-21 12:47:00,
2013-06-21 08:50:00,72.0,62.3,29.36,SSW,195,1.0,11.0,71,0.00,,,0.00,WUHU216DAVISVP2,2013-06-21 12:50:00,
2013-06-21 08:51:00,72.0,62.3,29.36,SSW,199,2.0,11.0,71,0.00,,,0.00,WUHU216DAVISVP2,2013-06-21 12:51:00,
2013-06-21 08:52:00,72.1,62.4,29.36,WSW,248,6.0,11.0,71,0.00,,,0.00,WUHU216DAVISVP2,2013-06-21 12:52:00,
2013-06-21 08:55:00,72.4,62.6,29.36,SSW,212,4.0,11.0,71,0.00,,,0.00,WUHU216DAVISVP2,2013-06-21 12:55:00,
2013-06-21 08:56:00,72.4,62.2,29.36,SW,214,0.0,11.0,70,0.00,,,0.00,WUHU216DAVISVP2,2013-06-21 12:56:00,
2013-06-21 08:57:00,72.6,62.4,29.36,South,186,10.0,11.0,70,0.00,,,0.00,WUHU216DAVISVP2,2013-06-21 12:57:00,
2013-06-21 09:00:00,72.8,62.6,29.37,SW,231,5.0,10.0,70,0.00,,,0.00,WUHU216DAVISVP2,2013-06-21 13:00:00,
2013-06-21 09:01:00,72.9,62.7,29.37,SW,235,7.0,10.0,70,0.00,,,0.00,WUHU216DAVISVP2,2013-06-21 13:01:00,
2013-06-21 09:02:00,73.0,62.4,29.37,WSW,239,7.0,11.0,69,0.00,,,0.00,WUHU216DAVISVP2,2013-06-21 13:02:00,
2013-06-21 09:05:00,73.3,63.1,29.37,SSW,197,4.0,12.0,70,0.00,,,0.00,WUHU216DAVISVP2,2013-06-21 13:05:00,
2013-06-21 09:06:00,73.3,63.1,29.37,South,184,6.0,12.0,70,0.00,,,0.00,WUHU216DAVISVP2,2013-06-21 13:06:00,
2013-06-21 09:07:00,73.4,62.8,29.36,SSW,204,7.0,12.0,69,0.00,,,0.00,WUHU216DAVISVP2,2013-06-21 13:07:00,
2013-06-21 09:11:00,73.7,63.1,29.35,SSW,199,5.0,12.0,69,0.00,,,0.00,WUHU216DAVISVP2,2013-06-21 13:11:00,
2013-06-21 09:12:00,73.7,63.1,29.35,South,189,4.0,12.0,69,0.00,,,0.00,WUHU216DAVISVP2,2013-06-21 13:12:00,
2013-06-21 09:13:00,73.8,63.2,29.35,South,188,6.0,12.0,69,0.00,,,0.00,WUHU216DAVISVP2,2013-06-21 13:13:00,
2013-06-21 09:16:00,73.9,63.3,29.35,South,189,1.0,12.0,69,0.00,,,0.00,WUHU216DAVISVP2,2013-06-21 13:16:00,
2013-06-21 09:17:00,74.0,63.0,29.35,SSW,200,3.0,12.0,68,0.00,,,0.00,WUHU216DAVISVP2,2013-06-21 13:17:00,
2013-06-21 09:18:00,74.1,63.5,29.35,South,188,4.0,12.0,69,0.00,,,0.00,WUHU216DAVISVP2,2013-06-21 13:18:00,
2013-06-21 09:21:00,74.3,63.3,29.35,SSW,201,4.0,12.0,68,0.00,,,0.00,WUHU216DAVISVP2,2013-06-21 13:21:00,
2013-06-21 09:22:00,74.4,63.8,29.35,SSW,194,2.0,12.0,69,0.00,,,0.00,WUHU216DAVISVP2,2013-06-21 13:22:00,
2013-06-21 09:23:00,74.4,63.4,29.35,South,191,5.0,12.0,68,0.00,,,0.00,WUHU216DAVISVP2,2013-06-21 13:23:00,
2013-06-21 09:24:00,74.5,63.5,29.35,SSW,203,2.0,12.0,68,0.00,,,0.00,WUHU216DAVISVP2,2013-06-21 13:24:00,
2013-06-21 09:26:00,74.7,63.2,29.35,South,183,9.0,12.0,67,0.00,,,0.00,WUHU216DAVISVP2,2013-06-21 13:26:00,
2013-06-21 09:27:00,74.8,63.3,29.35,SW,230,5.0,12.0,67,0.00,,,0.00,WUHU216DAVISVP2,2013-06-21 13:27:00,
2013-06-21 09:28:00,74.9,63.8,29.35,SW,214,9.0,12.0,68,0.00,,,0.00,WUHU216DAVISVP2,2013-06-21 13:28:00,
2013-06-21 09:29:00,74.9,63.4,29.35,SW,215,4.0,14.0,67,0.00,,,0.00,WUHU216DAVISVP2,2013-06-21 13:29:00,
2013-06-21 09:31:00,75.1,63.6,29.35,SW,233,8.0,14.0,67,0.00,,,0.00,WUHU216DAVISVP2,2013-06-21 13:31:00,
2013-06-21 09:32:00,75.2,64.1,29.35,WSW,241,13.0,14.0,68,0.00,,,0.00,WUHU216DAVISVP2,2013-06-21 13:32:00,
2013-06-21 09:33:00,75.2,63.7,29.35,SW,225,7.0,14.0,67,0.00,,,0.00,WUHU216DAVISVP2,2013-06-21 13:33:00,
2013-06-21 09:34:00,75.2,63.7,29.35,SSW,194,6.0,14.0,67,0.00,,,0.00,WUHU216DAVISVP2,2013-06-21 13:34:00,
2013-06-21 09:36:00,75.4,63.0,29.35,SW,221,7.0,14.0,65,0.00,,,0.00,WUHU216DAVISVP2,2013-06-21 13:36:00,
2013-06-21 09:37:00,75.4,63.5,29.35,SW,234,6.0,14.0,66,0.00,,,0.00,WUHU216DAVISVP2,2013-06-21 13:37:00,
2013-06-21 09:38:00,75.5,63.6,29.35,South,185,6.0,14.0,66,0.00,,,0.00,WUHU216DAVISVP2,2013-06-21 13:38:00,
2013-06-21 09:39:00,75.5,63.6,29.35,SW,214,4.0,14.0,66,0.00,,,0.00,WUHU216DAVISVP2,2013-06-21 13:39:00,
2013-06-21 09:42:00,75.7,63.3,29.35,WSW,256,4.0,14.0,65,0.00,,,0.00,WUHU216DAVISVP2,2013-06-21 13:42:00,
2013-06-21 09:43:00,75.7,63.8,29.35,South,188,9.0,14.0,66,0.00,,,0.00,WUHU216DAVISVP2,2013-06-21 13:43:00,
2013-06-21 09:44:00,75.8,63.9,29.35,SSW,210,4.0,14.0,66,0.00,,,0.00,WUHU216DAVISVP2,2013-06-21 13:44:00,
2013-06-21 09:47:00,75.9,63.9,29.35,SW,220,6.0,14.0,66,0.00,,,0.00,WUHU216DAVISVP2,2013-06-21 13:47:00,
2013-06-21 09:48:00,76.0,64.0,29.35,SW,236,4.0,14.0,66,0.00,,,0.00,WUHU216DAVISVP2,2013-06-21 13:48:00,
2013-06-21 09:49:00,76.1,64.6,29.35,SSW,199,3.0,14.0,67,0.00,,,0.00,WUHU216DAVISVP2,2013-06-21 13:49:00,
2013-06-21 09:52:00,76.3,64.3,29.35,SW,227,3.0,14.0,66,0.00,,,0.00,WUHU216DAVISVP2,2013-06-21 13:52:00,
2013-06-21 09:53:00,76.4,64.9,29.34,NW,305,5.0,14.0,67,0.00,,,0.00,WUHU216DAVISVP2,2013-06-21 13:53:00,
2013-06-21 09:54:00,76.5,64.9,29.34,SW,222,8.0,14.0,67,0.00,,,0.00,WUHU216DAVISVP2,2013-06-21 13:54:00,
2013-06-21 09:55:00,76.5,64.5,29.34,WSW,237,7.0,14.0,66,0.00,,,0.00,WUHU216DAVISVP2,2013-06-21 13:55:00,
2013-06-21 09:57:00,76.6,64.2,29.34,WSW,237,5.0,18.0,65,0.00,,,0.00,WUHU216DAVISVP2,2013-06-21 13:57:00,
2013-06-21 09:59:00,76.7,64.7,29.34,SW,231,5.0,18.0,66,0.00,,,0.00,WUHU216DAVISVP2,2013-06-21 13:59:00,
2013-06-21 10:00:00,76.8,64.4,29.34,South,190,6.0,18.0,65,0.00,,,0.00,WUHU216DAVISVP2,2013-06-21 14:00:00,
2013-06-21 10:02:00,76.9,64.0,29.34,SSW,197,0.0,18.0,64,0.00,,,0.00,WUHU216DAVISVP2,2013-06-21 14:02:00,
2013-06-21 10:04:00,77.0,64.6,29.34,WSW,253,9.0,18.0,65,0.00,,,0.00,WUHU216DAVISVP2,2013-06-21 14:04:00,
2013-06-21 10:05:00,77.0,64.1,29.34,WSW,251,6.0,18.0,64,0.00,,,0.00,WUHU216DAVISVP2,2013-06-21 14:05:00,
2013-06-21 10:09:00,77.2,63.9,29.35,SW,227,4.0,21.0,63,0.00,,,0.00,WUHU216DAVISVP2,2013-06-21 14:09:00,
2013-06-21 10:10:00,77.3,64.0,29.35,SW,236,10.0,21.0,63,0.00,,,0.00,WUHU216DAVISVP2,2013-06-21 14:10:00,
2013-06-21 10:11:00,77.3,64.0,29.35,SW,218,2.0,21.0,63,0.00,,,0.00,WUHU216DAVISVP2,2013-06-21 14:11:00,
2013-06-21 10:14:00,77.6,64.2,29.34,WSW,247,4.0,21.0,63,0.00,,,0.00,WUHU216DAVISVP2,2013-06-21 14:14:00,
2013-06-21 10:15:00,77.6,64.2,29.34,WSW,247,4.0,21.0,63,0.00,,,0.00,WUHU216DAVISVP2,2013-06-21 14:15:00,
2013-06-21 10:16:00,77.8,63.5,29.34,West,265,4.0,21.0,61,0.00,,,0.00,WUHU216DAVISVP2,2013-06-21 14:16:00,
2013-06-21 10:20:00,78.0,63.7,29.35,SW,231,6.0,21.0,61,0.00,,,0.00,WUHU216DAVISVP2,2013-06-21 14:20:00,
2013-06-21 10:22:00,78.1,63.3,29.35,SSW,203,3.0,21.0,60,0.00,,,0.00,WUHU216DAVISVP2,2013-06-21 14:22:00,
2013-06-21 10:25:00,78.2,63.9,29.35,South,173,1.0,18.0,61,0.00,,,0.00,WUHU216DAVISVP2,2013-06-21 14:25:00,
2013-06-21 10:27:00,78.3,64.0,29.35,SSW,194,5.0,15.0,61,0.00,,,0.00,WUHU216DAVISVP2,2013-06-21 14:27:00,
2013-06-21 10:30:00,78.5,64.2,29.35,South,188,2.0,15.0,61,0.00,,,0.00,WUHU216DAVISVP2,2013-06-21 14:30:00,
2013-06-21 10:32:00,78.7,64.4,29.35,SW,220,4.0,14.0,61,0.00,,,0.00,WUHU216DAVISVP2,2013-06-21 14:32:00,
2013-06-21 10:35:00,78.9,64.1,29.35,SSW,203,1.0,14.0,60,0.00,,,0.00,WUHU216DAVISVP2,2013-06-21 14:35:00,
2013-06-21 10:37:00,79.0,64.2,29.35,SSW,194,4.0,14.0,60,0.00,,,0.00,WUHU216DAVISVP2,2013-06-21 14:37:00,
2013-06-21 10:40:00,79.1,64.3,29.35,South,187,9.0,11.0,60,0.00,,,0.00,WUHU216DAVISVP2,2013-06-21 14:40:00,
2013-06-21 10:41:00,79.2,64.3,29.35,West,259,10.0,11.0,60,0.00,,,0.00,WUHU216DAVISVP2,2013-06-21 14:41:00,
2013-06-21 10:43:00,79.4,64.0,29.35,WSW,244,14.0,14.0,59,0.00,,,0.00,WUHU216DAVISVP2,2013-06-21 14:43:00,
2013-06-21 10:45:00,79.5,63.1,29.35,South,179,7.0,15.0,57,0.00,,,0.00,WUHU216DAVISVP2,2013-06-21 14:45:00,
2013-06-21 10:46:00,79.6,63.7,29.35,SSW,192,7.0,15.0,58,0.00,,,0.00,WUHU216DAVISVP2,2013-06-21 14:46:00,
2013-06-21 10:48:00,79.6,63.7,29.35,SW,235,14.0,15.0,58,0.00,,,0.00,WUHU216DAVISVP2,2013-06-21 14:48:00,
2013-06-21 10:50:00,79.7,63.8,29.35,SW,232,5.0,19.0,58,0.00,,,0.00,WUHU216DAVISVP2,2013-06-21 14:50:00,
2013-06-21 10:51:00,79.7,63.8,29.35,SW,233,0.0,19.0,58,0.00,,,0.00,WUHU216DAVISVP2,2013-06-21 14:51:00,
2013-06-21 10:53:00,79.8,63.9,29.35,South,187,2.0,19.0,58,0.00,,,0.00,WUHU216DAVISVP2,2013-06-21 14:53:00,
2013-06-21 10:55:00,79.8,63.9,29.35,South,190,9.0,19.0,58,0.00,,,0.00,WUHU216DAVISVP2,2013-06-21 14:55:00,
2013-06-21 10:56:00,79.8,63.9,29.35,WSW,249,6.0,19.0,58,0.00,,,0.00,WUHU216DAVISVP2,2013-06-21 14:56:00,
2013-06-21 10:58:00,79.9,64.0,29.36,SSW,212,5.0,19.0,58,0.00,,,0.00,WUHU216DAVISVP2,2013-06-21 14:58:00,
2013-06-21 11:00:00,80.0,65.1,29.36,SW,220,2.0,19.0,60,0.00,,,0.00,WUHU216DAVISVP2,2013-06-21 15:00:00,
2013-06-21 11:01:00,80.1,65.2,29.36,WSW,246,5.0,19.0,60,0.00,,,0.00,WUHU216DAVISVP2,2013-06-21 15:01:00,
2013-06-21 11:04:00,80.4,65.0,29.36,SW,221,2.0,19.0,59,0.00,,,0.00,WUHU216DAVISVP2,2013-06-21 15:04:00,
2013-06-21 11:06:00,80.5,65.1,29.36,WSW,241,6.0,19.0,59,0.00,,,0.00,WUHU216DAVISVP2,2013-06-21 15:06:00,
2013-06-21 11:07:00,80.6,64.2,29.36,SW,217,3.0,16.0,57,0.00,,,0.00,WUHU216DAVISVP2,2013-06-21 15:07:00,
2013-06-21 11:10:00,80.7,64.8,29.36,SSW,201,2.0,16.0,58,0.00,,,0.00,WUHU216DAVISVP2,2013-06-21 15:10:00,
2013-06-21 11:11:00,80.8,64.9,29.36,West,264,10.0,16.0,58,0.00,,,0.00,WUHU216DAVISVP2,2013-06-21 15:11:00,
2013-06-21 11:12:00,80.8,64.9,29.36,West,262,8.0,16.0,58,0.00,,,0.00,WUHU216DAVISVP2,2013-06-21 15:12:00,
2013-06-21 11:13:00,80.8,64.4,29.36,WSW,246,13.0,16.0,57,0.00,,,0.00,WUHU216DAVISVP2,2013-06-21 15:13:00,
2013-06-21 11:15:00,80.7,64.3,29.36,WSW,247,7.0,13.0,57,0.00,,,0.00,WUHU216DAVISVP2,2013-06-21 15:15:00,
2013-06-21 11:17:00,80.7,64.3,29.36,SW,225,4.0,20.0,57,0.00,,,0.00,WUHU216DAVISVP2,2013-06-21 15:17:00,
2013-06-21 11:18:00,80.7,64.3,29.36,SSW,197,6.0,20.0,57,0.00,,,0.00,WUHU216DAVISVP2,2013-06-21 15:18:00,
2013-06-21 11:19:00,80.8,64.4,29.36,WSW,251,9.0,20.0,57,0.00,,,0.00,WUHU216DAVISVP2,2013-06-21 15:19:00,
2013-06-21 11:20:00,80.8,63.8,29.36,WSW,244,6.0,20.0,56,0.00,,,0.00,WUHU216DAVISVP2,2013-06-21 15:20:00,
2013-06-21 11:22:00,80.9,65.0,29.36,WSW,250,4.0,20.0,58,0.00,,,0.00,WUHU216DAVISVP2,2013-06-21 15:22:00,
2013-06-21 11:23:00,81.0,64.5,29.36,SSW,209,1.0,20.0,57,0.00,,,0.00,WUHU216DAVISVP2,2013-06-21 15:23:00,
2013-06-21 11:24:00,81.1,65.2,29.36,South,191,10.0,20.0,58,0.00,,,0.00,WUHU216DAVISVP2,2013-06-21 15:24:00,
2013-06-21 11:25:00,81.2,65.7,29.36,West,272,6.0,20.0,59,0.00,,,0.00,WUHU216DAVISVP2,2013-06-21 15:25:00,
2013-06-21 11:27:00,81.4,65.4,29.36,WSW,245,8.0,20.0,58,0.00,,,0.00,WUHU216DAVISVP2,2013-06-21 15:27:00,
2013-06-21 11:28:00,81.4,64.9,29.36,WSW,251,7.0,20.0,57,0.00,,,0.00,WUHU216DAVISVP2,2013-06-21 15:28:00,
2013-06-21 11:29:00,81.5,65.0,29.36,West,275,9.0,20.0,57,0.00,,,0.00,WUHU216DAVISVP2,2013-06-21 15:29:00,
2013-06-21 11:30:00,81.4,64.4,29.36,WSW,257,12.0,20.0,56,0.00,,,0.00,WUHU216DAVISVP2,2013-06-21 15:30:00,
2013-06-21 11:32:00,81.4,65.4,29.36,SW,233,4.0,20.0,58,0.00,,,0.00,WUHU216DAVISVP2,2013-06-21 15:32:00,
2013-06-21 11:33:00,81.4,65.9,29.36,WSW,244,12.0,20.0,59,0.00,,,0.00,WUHU216DAVISVP2,2013-06-21 15:33:00,
2013-06-21 11:34:00,81.4,64.4,29.36,SW,235,12.0,20.0,56,0.00,,,0.00,WUHU216DAVISVP2,2013-06-21 15:34:00,
2013-06-21 11:36:00,81.3,64.3,29.36,SSW,203,5.0,15.0,56,0.00,,,0.00,WUHU216DAVISVP2,2013-06-21 15:36:00,
2013-06-21 11:37:00,81.3,65.3,29.36,SW,216,1.0,15.0,58,0.00,,,0.00,WUHU216DAVISVP2,2013-06-21 15:37:00,
2013-06-21 11:38:00,81.4,64.4,29.36,SW,223,7.0,15.0,56,0.00,,,0.00,WUHU216DAVISVP2,2013-06-21 15:38:00,
2013-06-21 11:39:00,81.4,64.9,29.36,SSW,208,3.0,15.0,57,0.00,,,0.00,WUHU216DAVISVP2,2013-06-21 15:39:00,
2013-06-21 11:40:00,81.4,64.4,29.36,SW,235,5.0,15.0,56,0.00,,,0.00,WUHU216DAVISVP2,2013-06-21 15:40:00,
2013-06-21 11:41:00,81.4,64.9,29.36,SW,231,4.0,15.0,57,0.00,,,0.00,WUHU216DAVISVP2,2013-06-21 15:41:00,
2013-06-21 11:42:00,81.5,65.0,29.36,South,171,2.0,15.0,57,0.00,,,0.00,WUHU216DAVISVP2,2013-06-21 15:42:00,
2013-06-21 11:43:00,81.5,65.0,29.36,SSW,201,1.0,15.0,57,0.00,,,0.00,WUHU216DAVISVP2,2013-06-21 15:43:00,
2013-06-21 11:45:00,81.6,65.6,29.37,West,264,6.0,15.0,58,0.00,,,0.00,WUHU216DAVISVP2,2013-06-21 15:45:00,
2013-06-21 11:46:00,81.6,65.6,29.36,West,263,2.0,15.0,58,0.00,,,0.00,WUHU216DAVISVP2,2013-06-21 15:46:00,
2013-06-21 11:47:00,81.7,64.7,29.37,West,268,7.0,15.0,56,0.00,,,0.00,WUHU216DAVISVP2,2013-06-21 15:47:00,
2013-06-21 11:48:00,81.7,64.7,29.36,South,188,5.0,15.0,56,0.00,,,0.00,WUHU216DAVISVP2,2013-06-21 15:48:00,
2013-06-21 11:50:00,81.7,64.7,29.37,West,268,5.0,15.0,56,0.00,,,0.00,WUHU216DAVISVP2,2013-06-21 15:50:00,
2013-06-21 11:51:00,81.8,65.8,29.37,South,182,10.0,15.0,58,0.00,,,0.00,WUHU216DAVISVP2,2013-06-21 15:51:00,
2013-06-21 11:52:00,81.8,64.8,29.36,South,173,2.0,15.0,56,0.00,,,0.00,WUHU216DAVISVP2,2013-06-21 15:52:00,
2013-06-21 11:53:00,81.8,64.8,29.37,SW,235,4.0,15.0,56,0.00,,,0.00,WUHU216DAVISVP2,2013-06-21 15:53:00,
2013-06-21 11:55:00,81.8,64.8,29.36,WSW,237,9.0,13.0,56,0.00,,,0.00,WUHU216DAVISVP2,2013-06-21 15:55:00,
2013-06-21 11:56:00,81.8,65.3,29.37,SSW,212,1.0,13.0,57,0.00,,,0.00,WUHU216DAVISVP2,2013-06-21 15:56:00,
2013-06-21 11:58:00,81.8,65.8,29.36,SSW,212,1.0,13.0,58,0.00,,,0.00,WUHU216DAVISVP2,2013-06-21 15:58:00,
2013-06-21 12:00:00,81.8,65.3,29.36,SW,217,11.0,14.0,57,0.00,,,0.00,WUHU216DAVISVP2,2013-06-21 16:00:00,
2013-06-21 12:01:00,81.8,64.3,29.36,WSW,239,10.0,15.0,55,0.00,,,0.00,WUHU216DAVISVP2,2013-06-21 16:01:00,
2013-06-21 12:03:00,81.8,64.3,29.36,WSW,253,9.0,15.0,55,0.00,,,0.00,WUHU216DAVISVP2,2013-06-21 16:03:00,
2013-06-21 12:05:00,81.8,64.8,29.36,South,186,2.0,15.0,56,0.00,,,0.00,WUHU216DAVISVP2,2013-06-21 16:05:00,
2013-06-21 12:06:00,81.8,64.8,29.36,SW,236,5.0,15.0,56,0.00,,,0.00,WUHU216DAVISVP2,2013-06-21 16:06:00,
2013-06-21 12:08:00,81.9,65.9,29.36,SSE,168,7.0,15.0,58,0.00,,,0.00,WUHU216DAVISVP2,2013-06-21 16:08:00,
2013-06-21 12:09:00,82.0,65.5,29.36,South,183,9.0,15.0,57,0.00,,,0.00,WUHU216DAVISVP2,2013-06-21 16:09:00,
2013-06-21 12:10:00,82.0,65.0,29.35,SW,224,7.0,15.0,56,0.00,,,0.00,WUHU216DAVISVP2,2013-06-21 16:10:00,
2013-06-21 12:11:00,82.0,64.4,29.35,South,191,6.0,15.0,55,0.00,,,0.00,WUHU216DAVISVP2,2013-06-21 16:11:00,
2013-06-21 12:13:00,82.1,64.5,29.35,West,262,8.0,15.0,55,0.00,,,0.00,WUHU216DAVISVP2,2013-06-21 16:13:00,
2013-06-21 12:14:00,82.1,64.0,29.35,SSW,193,6.0,15.0,54,0.00,,,0.00,WUHU216DAVISVP2,2013-06-21 16:14:00,
2013-06-21 12:15:00,82.2,64.1,29.35,WSW,249,10.0,20.0,54,0.00,,,0.00,WUHU216DAVISVP2,2013-06-21 16:15:00,
2013-06-21 12:16:00,82.2,64.1,29.35,WSW,239,7.0,20.0,54,0.00,,,0.00,WUHU216DAVISVP2,2013-06-21 16:16:00,
2013-06-21 12:17:00,82.2,64.1,29.35,SSW,210,3.0,20.0,54,0.00,,,0.00,WUHU216DAVISVP2,2013-06-21 16:17:00,
2013-06-21 12:19:00,82.3,63.1,29.35,South,187,4.0,20.0,52,0.00,,,0.00,WUHU216DAVISVP2,2013-06-21 16:19:00,
2013-06-21 12:20:00,82.4,63.7,29.35,WSW,237,12.0,20.0,53,0.00,,,0.00,WUHU216DAVISVP2,2013-06-21 16:20:00,
2013-06-21 12:22:00,82.4,63.7,29.35,WSW,243,10.0,20.0,53,0.00,,,0.00,WUHU216DAVISVP2,2013-06-21 16:22:00,
2013-06-21 12:24:00,82.5,64.4,29.35,SSW,194,4.0,20.0,54,0.00,,,0.00,WUHU216DAVISVP2,2013-06-21 16:24:00,
2013-06-21 12:26:00,82.6,64.5,29.35,WSW,239,7.0,20.0,54,0.00,,,0.00,WUHU216DAVISVP2,2013-06-21 16:26:00,
2013-06-21 12:27:00,82.7,63.4,29.35,SW,214,5.0,20.0,52,0.00,,,0.00,WUHU216DAVISVP2,2013-06-21 16:27:00,
2013-06-21 12:28:00,82.6,63.4,29.35,SSW,211,3.0,20.0,52,0.00,,,0.00,WUHU216DAVISVP2,2013-06-21 16:28:00,
2013-06-21 12:29:00,82.6,63.4,29.35,WSW,247,13.0,20.0,52,0.00,,,0.00,WUHU216DAVISVP2,2013-06-21 16:29:00,
2013-06-21 12:31:00,82.7,64.0,29.35,WSW,239,4.0,20.0,53,0.00,,,0.00,WUHU216DAVISVP2,2013-06-21 16:31:00,
2013-06-21 12:32:00,82.7,63.4,29.35,WSW,241,9.0,20.0,52,0.00,,,0.00,WUHU216DAVISVP2,2013-06-21 16:32:00,
2013-06-21 12:33:00,82.8,63.0,29.35,WSW,247,9.0,20.0,51,0.00,,,0.00,WUHU216DAVISVP2,2013-06-21 16:33:00,
2013-06-21 12:34:00,82.8,63.0,29.35,WSW,241,13.0,18.0,51,0.00,,,0.00,WUHU216DAVISVP2,2013-06-21 16:34:00,
2013-06-21 12:36:00,82.9,64.2,29.35,WSW,244,6.0,18.0,53,0.00,,,0.00,WUHU216DAVISVP2,2013-06-21 16:36:00,
2013-06-21 12:37:00,82.9,64.2,29.35,SW,231,5.0,18.0,53,0.00,,,0.00,WUHU216DAVISVP2,2013-06-21 16:37:00,
2013-06-21 12:38:00,82.9,63.1,29.35,SW,236,9.0,18.0,51,0.00,,,0.00,WUHU216DAVISVP2,2013-06-21 16:38:00,
2013-06-21 12:39:00,82.9,63.1,29.35,SSW,193,6.0,18.0,51,0.00,,,0.00,WUHU216DAVISVP2,2013-06-21 16:39:00,
2013-06-21 12:41:00,83.0,62.6,29.35,South,188,6.0,18.0,50,0.00,,,0.00,WUHU216DAVISVP2,2013-06-21 16:41:00,
2013-06-21 12:42:00,83.0,62.0,29.35,WSW,245,7.0,18.0,49,0.00,,,0.00,WUHU216DAVISVP2,2013-06-21 16:42:00,
2013-06-21 12:43:00,83.0,62.6,29.35,SSW,197,2.0,18.0,50,0.00,,,0.00,WUHU216DAVISVP2,2013-06-21 16:43:00,
2013-06-21 12:44:00,83.0,62.0,29.35,SSW,212,6.0,18.0,49,0.00,,,0.00,WUHU216DAVISVP2,2013-06-21 16:44:00,
2013-06-21 12:46:00,83.1,60.9,29.35,SSW,199,8.0,18.0,47,0.00,,,0.00,WUHU216DAVISVP2,2013-06-21 16:46:00,
2013-06-21 12:47:00,83.2,61.0,29.35,WSW,242,15.0,18.0,47,0.00,,,0.00,WUHU216DAVISVP2,2013-06-21 16:47:00,
2013-06-21 12:48:00,83.2,61.6,29.35,SW,227,5.0,18.0,48,0.00,,,0.00,WUHU216DAVISVP2,2013-06-21 16:48:00,
2013-06-21 12:50:00,83.3,62.3,29.35,SSW,210,2.0,18.0,49,0.00,,,0.00,WUHU216DAVISVP2,2013-06-21 16:50:00,
2013-06-21 12:51:00,83.4,63.5,29.35,South,191,2.0,18.0,51,0.00,,,0.00,WUHU216DAVISVP2,2013-06-21 16:51:00,
2013-06-21 12:52:00,83.5,63.6,29.35,SW,220,1.0,18.0,51,0.00,,,0.00,WUHU216DAVISVP2,2013-06-21 16:52:00,
2013-06-21 12:53:00,83.6,63.1,29.35,SSW,203,4.0,15.0,50,0.00,,,0.00,WUHU216DAVISVP2,2013-06-21 16:53:00,
2013-06-21 12:55:00,83.6,61.9,29.35,SSW,201,7.0,15.0,48,0.00,,,0.00,WUHU216DAVISVP2,2013-06-21 16:55:00,
2013-06-21 12:56:00,83.5,61.2,29.35,SSW,204,8.0,15.0,47,0.00,,,0.00,WUHU216DAVISVP2,2013-06-21 16:56:00,
2013-06-21 12:57:00,83.5,61.8,29.35,SSE,168,8.0,15.0,48,0.00,,,0.00,WUHU216DAVISVP2,2013-06-21 16:57:00,
2013-06-21 12:58:00,83.5,60.6,29.35,South,175,6.0,15.0,46,0.00,,,0.00,WUHU216DAVISVP2,2013-06-21 16:58:00,
2013-06-21 12:59:00,83.6,60.7,29.35,SSW,203,6.0,15.0,46,0.00,,,0.00,WUHU216DAVISVP2,2013-06-21 16:59:00,
2013-06-21 13:01:00,83.5,58.0,29.35,South,187,1.0,16.0,42,0.00,,,0.00,WUHU216DAVISVP2,2013-06-21 17:01:00,
2013-06-21 13:02:00,83.6,60.7,29.34,South,187,11.0,16.0,46,0.00,,,0.00,WUHU216DAVISVP2,2013-06-21 17:02:00,
2013-06-21 13:04:00,83.6,60.1,29.34,South,174,6.0,16.0,45,0.00,,,0.00,WUHU216DAVISVP2,2013-06-21 17:04:00,
2013-06-21 13:06:00,83.6,60.7,29.34,WSW,254,11.0,16.0,46,0.00,,,0.00,WUHU216DAVISVP2,2013-06-21 17:06:00,
2013-06-21 13:07:00,83.6,60.1,29.34,SW,229,13.0,16.0,45,0.00,,,0.00,WUHU216DAVISVP2,2013-06-21 17:07:00,
2013-06-21 13:09:00,83.6,60.7,29.34,SSW,212,4.0,18.0,46,0.00,,,0.00,WUHU216DAVISVP2,2013-06-21 17:09:00,
2013-06-21 13:11:00,83.6,60.7,29.34,SSW,193,7.0,18.0,46,0.00,,,0.00,WUHU216DAVISVP2,2013-06-21 17:11:00,
2013-06-21 13:12:00,83.5,60.6,29.34,SSW,199,2.0,18.0,46,0.00,,,0.00,WUHU216DAVISVP2,2013-06-21 17:12:00,
2013-06-21 13:13:00,83.6,61.3,29.34,SW,214,1.0,18.0,47,0.00,,,0.00,WUHU216DAVISVP2,2013-06-21 17:13:00,
2013-06-21 13:14:00,83.6,61.9,29.33,South,172,5.0,18.0,48,0.00,,,0.00,WUHU216DAVISVP2,2013-06-21 17:14:00,
2013-06-21 13:15:00,83.7,62.0,29.33,SW,232,10.0,18.0,48,0.00,,,0.00,WUHU216DAVISVP2,2013-06-21 17:15:00,
2013-06-21 13:17:00,83.9,60.3,29.33,SSW,207,3.0,19.0,45,0.00,,,0.00,WUHU216DAVISVP2,2013-06-21 17:17:00,
2013-06-21 13:18:00,83.9,60.3,29.33,WSW,241,8.0,19.0,45,0.00,,,0.00,WUHU216DAVISVP2,2013-06-21 17:18:00,
2013-06-21 13:20:00,84.0,61.1,29.33,SSW,195,5.0,19.0,46,0.00,,,0.00,WUHU216DAVISVP2,2013-06-21 17:20:00,
2013-06-21 13:23:00,84.0,61.1,29.34,South,180,5.0,19.0,46,0.00,,,0.00,WUHU216DAVISVP2,2013-06-21 17:23:00,
2013-06-21 13:25:00,84.0,61.1,29.34,SSW,197,2.0,19.0,46,0.00,,,0.00,WUHU216DAVISVP2,2013-06-21 17:25:00,
2013-06-21 13:27:00,84.1,61.1,29.34,SSE,152,8.0,19.0,46,0.00,,,0.00,WUHU216DAVISVP2,2013-06-21 17:27:00,
2013-06-21 13:28:00,84.1,62.4,29.34,SSW,210,1.0,19.0,48,0.00,,,0.00,WUHU216DAVISVP2,2013-06-21 17:28:00,
2013-06-21 13:29:00,84.1,61.1,29.33,SW,218,2.0,19.0,46,0.00,,,0.00,WUHU216DAVISVP2,2013-06-21 17:29:00,
2013-06-21 13:30:00,84.1,61.8,29.33,SSE,156,6.0,19.0,47,0.00,,,0.00,WUHU216DAVISVP2,2013-06-21 17:30:00,
2013-06-21 13:32:00,84.1,61.8,29.33,SSW,205,5.0,19.0,47,0.00,,,0.00,WUHU216DAVISVP2,2013-06-21 17:32:00,
2013-06-21 13:34:00,84.1,60.5,29.33,SSW,212,6.0,19.0,45,0.00,,,0.00,WUHU216DAVISVP2,2013-06-21 17:34:00,
2013-06-21 13:37:00,84.1,59.2,29.34,South,187,4.0,13.0,43,0.00,,,0.00,WUHU216DAVISVP2,2013-06-21 17:37:00,
2013-06-21 13:40:00,84.2,59.9,29.34,South,185,4.0,13.0,44,0.00,,,0.00,WUHU216DAVISVP2,2013-06-21 17:40:00,
2013-06-21 13:41:00,84.2,59.3,29.34,SW,230,6.0,13.0,43,0.00,,,0.00,WUHU216DAVISVP2,2013-06-21 17:41:00,
2013-06-21 13:43:00,84.2,59.3,29.34,South,180,11.0,19.0,43,0.00,,,0.00,WUHU216DAVISVP2,2013-06-21 17:43:00,
2013-06-21 13:44:00,84.2,60.6,29.34,South,177,2.0,19.0,45,0.00,,,0.00,WUHU216DAVISVP2,2013-06-21 17:44:00,
2013-06-21 13:45:00,84.1,59.2,29.34,SSE,160,5.0,19.0,43,0.00,,,0.00,WUHU216DAVISVP2,2013-06-21 17:45:00,
2013-06-21 13:46:00,84.2,59.3,29.34,South,179,6.0,19.0,43,0.00,,,0.00,WUHU216DAVISVP2,2013-06-21 17:46:00,
2013-06-21 13:51:00,84.2,61.2,29.34,SW,221,5.0,19.0,46,0.00,,,0.00,WUHU216DAVISVP2,2013-06-21 17:51:00,
2013-06-21 13:52:00,84.2,59.9,29.34,South,185,6.0,19.0,44,0.00,,,0.00,WUHU216DAVISVP2,2013-06-21 17:52:00,
2013-06-21 13:56:00,84.2,59.9,29.34,South,184,7.0,19.0,44,0.00,,,0.00,WUHU216DAVISVP2,2013-06-21 17:56:00,
2013-06-21 13:57:00,84.2,59.9,29.34,South,179,9.0,19.0,44,0.00,,,0.00,WUHU216DAVISVP2,2013-06-21 17:57:00,
2013-06-21 13:58:00,84.2,59.9,29.34,WSW,241,2.0,19.0,44,0.00,,,0.00,WUHU216DAVISVP2,2013-06-21 17:58:00,
2013-06-21 14:02:00,84.3,61.3,29.34,SSW,196,2.0,18.0,46,0.00,,,0.00,WUHU216DAVISVP2,2013-06-21 18:02:00,
2013-06-21 14:03:00,84.6,61.0,29.34,South,189,7.0,18.0,45,0.00,,,0.00,WUHU216DAVISVP2,2013-06-21 18:03:00,
2013-06-21 14:05:00,84.7,60.4,29.34,South,185,1.0,18.0,44,0.00,,,0.00,WUHU216DAVISVP2,2013-06-21 18:05:00,
2013-06-21 14:07:00,84.7,60.4,29.34,SSW,210,4.0,18.0,44,0.00,,,0.00,WUHU216DAVISVP2,2013-06-21 18:07:00,
2013-06-21 14:08:00,84.7,59.1,29.34,South,185,6.0,18.0,42,0.00,,,0.00,WUHU216DAVISVP2,2013-06-21 18:08:00,
2013-06-21 14:11:00,84.6,60.3,29.34,SSE,167,2.0,18.0,44,0.00,,,0.00,WUHU216DAVISVP2,2013-06-21 18:11:00,
2013-06-21 14:13:00,84.6,61.0,29.34,SSE,154,5.0,18.0,45,0.00,,,0.00,WUHU216DAVISVP2,2013-06-21 18:13:00,
2013-06-21 14:14:00,84.6,61.0,29.34,WSW,252,3.0,18.0,45,0.00,,,0.00,WUHU216DAVISVP2,2013-06-21 18:14:00,
2013-06-21 14:17:00,84.6,60.3,29.33,WSW,253,10.0,13.0,44,0.00,,,0.00,WUHU216DAVISVP2,2013-06-21 18:17:00,
2013-06-21 14:18:00,84.6,60.3,29.33,SW,222,13.0,20.0,44,0.00,,,0.00,WUHU216DAVISVP2,2013-06-21 18:18:00,
2013-06-21 14:19:00,84.5,60.2,29.33,WSW,251,10.0,20.0,44,0.00,,,0.00,WUHU216DAVISVP2,2013-06-21 18:19:00,
2013-06-21 14:22:00,84.6,61.0,29.33,South,190,1.0,20.0,45,0.00,,,0.00,WUHU216DAVISVP2,2013-06-21 18:22:00,
2013-06-21 14:23:00,84.6,61.0,29.33,WSW,248,6.0,20.0,45,0.00,,,0.00,WUHU216DAVISVP2,2013-06-21 18:23:00,
2013-06-21 14:24:00,84.7,61.7,29.33,SSE,164,3.0,20.0,46,0.00,,,0.00,WUHU216DAVISVP2,2013-06-21 18:24:00,
2013-06-21 14:28:00,84.8,60.5,29.33,SW,218,3.0,20.0,44,0.00,,,0.00,WUHU216DAVISVP2,2013-06-21 18:28:00,
2013-06-21 14:29:00,84.8,59.8,29.33,South,181,5.0,20.0,43,0.00,,,0.00,WUHU216DAVISVP2,2013-06-21 18:29:00,
2013-06-21 14:33:00,84.7,60.4,29.33,South,191,1.0,20.0,44,0.00,,,0.00,WUHU216DAVISVP2,2013-06-21 18:33:00,
2013-06-21 14:34:00,84.7,61.1,29.33,SE,137,4.0,20.0,45,0.00,,,0.00,WUHU216DAVISVP2,2013-06-21 18:34:00,
2013-06-21 14:39:00,84.9,60.6,29.33,WSW,246,10.0,13.0,44,0.00,,,0.00,WUHU216DAVISVP2,2013-06-21 18:39:00,
2013-06-21 14:40:00,84.8,59.8,29.33,SE,146,6.0,13.0,43,0.00,,,0.00,WUHU216DAVISVP2,2013-06-21 18:40:00,
2013-06-21 14:44:00,84.8,60.5,29.33,South,185,11.0,13.0,44,0.00,,,0.00,WUHU216DAVISVP2,2013-06-21 18:44:00,
2013-06-21 14:45:00,84.7,60.4,29.33,SSW,192,2.0,13.0,44,0.00,,,0.00,WUHU216DAVISVP2,2013-06-21 18:45:00,
2013-06-21 14:46:00,84.7,59.7,29.33,South,189,9.0,16.0,43,0.00,,,0.00,WUHU216DAVISVP2,2013-06-21 18:46:00,
2013-06-21 14:50:00,84.5,60.2,29.33,SSW,198,5.0,16.0,44,0.00,,,0.00,WUHU216DAVISVP2,2013-06-21 18:50:00,
2013-06-21 14:51:00,84.6,61.0,29.33,South,181,9.0,16.0,45,0.00,,,0.00,WUHU216DAVISVP2,2013-06-21 18:51:00,
2013-06-21 14:55:00,84.7,59.1,29.33,WSW,243,7.0,16.0,42,0.00,,,0.00,WUHU216DAVISVP2,2013-06-21 18:55:00,
2013-06-21 14:56:00,84.7,59.1,29.33,WSW,243,7.0,16.0,42,0.00,,,0.00,WUHU216DAVISVP2,2013-06-21 18:56:00,
2013-06-21 15:01:00,84.8,59.8,29.33,South,181,4.0,16.0,43,0.00,,,0.00,WUHU216DAVISVP2,2013-06-21 19:01:00,
2013-06-21 15:02:00,84.8,59.8,29.32,South,182,4.0,16.0,43,0.00,,,0.00,WUHU216DAVISVP2,2013-06-21 19:02:00,
2013-06-21 15:06:00,84.8,60.5,29.33,SSW,197,6.0,14.0,44,0.00,,,0.00,WUHU216DAVISVP2,2013-06-21 19:06:00,
2013-06-21 15:07:00,84.8,59.1,29.33,South,173,5.0,14.0,42,0.00,,,0.00,WUHU216DAVISVP2,2013-06-21 19:07:00,
2013-06-21 15:08:00,84.8,59.8,29.33,South,171,4.0,14.0,43,0.00,,,0.00,WUHU216DAVISVP2,2013-06-21 19:08:00,
2013-06-21 15:12:00,85.0,60.7,29.33,SW,224,5.0,14.0,44,0.00,,,0.00,WUHU216DAVISVP2,2013-06-21 19:12:00,
2013-06-21 15:13:00,85.0,60.7,29.33,SW,223,7.0,14.0,44,0.00,,,0.00,WUHU216DAVISVP2,2013-06-21 19:13:00,
2013-06-21 15:14:00,85.0,60.7,29.32,South,183,6.0,14.0,44,0.00,,,0.00,WUHU216DAVISVP2,2013-06-21 19:14:00,
2013-06-21 15:15:00,85.0,60.7,29.32,SW,226,3.0,14.0,44,0.00,,,0.00,WUHU216DAVISVP2,2013-06-21 19:15:00,
2013-06-21 15:17:00,85.0,60.7,29.32,SSW,194,7.0,14.0,44,0.00,,,0.00,WUHU216DAVISVP2,2013-06-21 19:17:00,
2013-06-21 15:18:00,85.0,60.0,29.32,SSW,210,2.0,14.0,43,0.00,,,0.00,WUHU216DAVISVP2,2013-06-21 19:18:00,
2013-06-21 15:20:00,85.0,60.7,29.32,SSW,195,1.0,14.0,44,0.00,,,0.00,WUHU216DAVISVP2,2013-06-21 19:20:00,
2013-06-21 15:22:00,85.0,61.3,29.32,SSE,166,8.0,15.0,45,0.00,,,0.00,WUHU216DAVISVP2,2013-06-21 19:22:00,
2013-06-21 15:23:00,84.9,60.6,29.32,SW,222,4.0,15.0,44,0.00,,,0.00,WUHU216DAVISVP2,2013-06-21 19:23:00,
2013-06-21 15:25:00,84.8,59.8,29.32,South,187,6.0,15.0,43,0.00,,,0.00,WUHU216DAVISVP2,2013-06-21 19:25:00,
2013-06-21 15:27:00,84.8,59.8,29.32,SW,226,1.0,15.0,43,0.00,,,0.00,WUHU216DAVISVP2,2013-06-21 19:27:00,
2013-06-21 15:28:00,84.8,59.8,29.32,South,187,1.0,15.0,43,0.00,,,0.00,WUHU216DAVISVP2,2013-06-21 19:28:00,
2013-06-21 15:30:00,84.9,61.2,29.32,SSE,156,2.0,15.0,45,0.00,,,0.00,WUHU216DAVISVP2,2013-06-21 19:30:00,
2013-06-21 15:33:00,84.9,61.9,29.32,SSW,210,2.0,15.0,46,0.00,,,0.00,WUHU216DAVISVP2,2013-06-21 19:33:00,
2013-06-21 15:35:00,84.9,60.6,29.32,SW,221,3.0,15.0,44,0.00,,,0.00,WUHU216DAVISVP2,2013-06-21 19:35:00,
2013-06-21 15:38:00,85.0,62.0,29.32,SW,216,1.0,15.0,46,0.00,,,0.00,WUHU216DAVISVP2,2013-06-21 19:38:00,
2013-06-21 15:39:00,85.0,62.0,29.32,SSW,210,4.0,15.0,46,0.00,,,0.00,WUHU216DAVISVP2,2013-06-21 19:39:00,
2013-06-21 15:40:00,85.0,61.3,29.32,WSW,247,8.0,15.0,45,0.00,,,0.00,WUHU216DAVISVP2,2013-06-21 19:40:00,
2013-06-21 15:41:00,85.0,61.3,29.32,WSW,245,9.0,13.0,45,0.00,,,0.00,WUHU216DAVISVP2,2013-06-21 19:41:00,
2013-06-21 15:42:00,85.0,61.3,29.32,SW,220,0.0,13.0,45,0.00,,,0.00,WUHU216DAVISVP2,2013-06-21 19:42:00,
2013-06-21 15:44:00,85.0,62.6,29.32,West,270,5.0,13.0,47,0.00,,,0.00,WUHU216DAVISVP2,2013-06-21 19:44:00,
2013-06-21 15:45:00,85.0,62.6,29.32,SW,230,3.0,10.0,47,0.00,,,0.00,WUHU216DAVISVP2,2013-06-21 19:45:00,
2013-06-21 15:48:00,85.2,62.2,29.32,South,186,5.0,10.0,46,0.00,,,0.00,WUHU216DAVISVP2,2013-06-21 19:48:00,
2013-06-21 15:49:00,85.2,61.5,29.32,SSW,208,5.0,10.0,45,0.00,,,0.00,WUHU216DAVISVP2,2013-06-21 19:49:00,
2013-06-21 15:50:00,85.2,62.1,29.32,South,177,2.0,10.0,46,0.00,,,0.00,WUHU216DAVISVP2,2013-06-21 19:50:00,
2013-06-21 15:53:00,85.1,62.1,29.31,SW,224,1.0,12.0,46,0.00,,,0.00,WUHU216DAVISVP2,2013-06-21 19:53:00,
2013-06-21 15:55:00,85.1,60.8,29.31,SSW,199,1.0,12.0,44,0.00,,,0.00,WUHU216DAVISVP2,2013-06-21 19:55:00,
2013-06-21 15:58:00,85.1,62.7,29.32,SSW,205,1.0,12.0,47,0.00,,,0.00,WUHU216DAVISVP2,2013-06-21 19:58:00,
2013-06-21 15:59:00,85.1,62.7,29.32,SSW,205,1.0,12.0,47,0.00,,,0.00,WUHU216DAVISVP2,2013-06-21 19:59:00,
2013-06-21 16:00:00,85.0,62.0,29.31,WSW,241,3.0,12.0,46,0.00,,,0.00,WUHU216DAVISVP2,2013-06-21 20:00:00,
2013-06-21 16:04:00,85.1,62.0,29.31,SW,228,1.0,12.0,46,0.00,,,0.00,WUHU216DAVISVP2,2013-06-21 20:04:00,
2013-06-21 16:05:00,85.2,60.9,29.31,South,189,0.0,12.0,44,0.00,,,0.00,WUHU216DAVISVP2,2013-06-21 20:05:00,
2013-06-21 16:08:00,85.2,61.5,29.31,SSW,200,1.0,12.0,45,0.00,,,0.00,WUHU216DAVISVP2,2013-06-21 20:08:00,
2013-06-21 16:09:00,85.2,62.8,29.31,South,190,3.0,12.0,47,0.00,,,0.00,WUHU216DAVISVP2,2013-06-21 20:09:00,
2013-06-21 16:10:00,85.2,61.5,29.31,SSW,193,2.0,12.0,45,0.00,,,0.00,WUHU216DAVISVP2,2013-06-21 20:10:00,
2013-06-21 16:11:00,85.2,61.5,29.31,SSW,195,1.0,12.0,45,0.00,,,0.00,WUHU216DAVISVP2,2013-06-21 20:11:00,
2013-06-21 16:13:00,85.2,60.9,29.31,West,272,2.0,12.0,44,0.00,,,0.00,WUHU216DAVISVP2,2013-06-21 20:13:00,
2013-06-21 16:14:00,85.2,60.9,29.31,West,272,4.0,12.0,44,0.00,,,0.00,WUHU216DAVISVP2,2013-06-21 20:14:00,
2013-06-21 16:15:00,85.3,61.6,29.31,South,185,2.0,12.0,45,0.00,,,0.00,WUHU216DAVISVP2,2013-06-21 20:15:00,
2013-06-21 16:16:00,85.3,61.6,29.31,South,169,4.0,12.0,45,0.00,,,0.00,WUHU216DAVISVP2,2013-06-21 20:16:00,
2013-06-21 16:19:00,85.3,62.2,29.31,SW,222,4.0,10.0,46,0.00,,,0.00,WUHU216DAVISVP2,2013-06-21 20:19:00,
2013-06-21 16:21:00,85.3,62.2,29.31,SSW,195,4.0,11.0,46,0.00,,,0.00,WUHU216DAVISVP2,2013-06-21 20:21:00,
2013-06-21 16:24:00,85.2,61.5,29.31,South,184,5.0,15.0,45,0.00,,,0.00,WUHU216DAVISVP2,2013-06-21 20:24:00,
2013-06-21 16:25:00,85.2,62.2,29.31,South,183,6.0,15.0,46,0.00,,,0.00,WUHU216DAVISVP2,2013-06-21 20:25:00,
2013-06-21 16:26:00,85.1,61.4,29.31,SSW,198,5.0,15.0,45,0.00,,,0.00,WUHU216DAVISVP2,2013-06-21 20:26:00,
2013-06-21 16:29:00,84.9,60.6,29.30,South,184,8.0,15.0,44,0.00,,,0.00,WUHU216DAVISVP2,2013-06-21 20:29:00,
2013-06-21 16:30:00,84.9,60.6,29.30,South,185,4.0,15.0,44,0.00,,,0.00,WUHU216DAVISVP2,2013-06-21 20:30:00,
2013-06-21 16:31:00,84.8,61.1,29.30,SW,214,1.0,15.0,45,0.00,,,0.00,WUHU216DAVISVP2,2013-06-21 20:31:00,
2013-06-21 16:34:00,84.9,61.2,29.31,West,262,6.0,15.0,45,0.00,,,0.00,WUHU216DAVISVP2,2013-06-21 20:34:00,
2013-06-21 16:35:00,85.0,61.3,29.31,WSW,256,6.0,15.0,45,0.00,,,0.00,WUHU216DAVISVP2,2013-06-21 20:35:00,
2013-06-21 16:36:00,85.0,61.3,29.31,SSW,208,1.0,15.0,45,0.00,,,0.00,WUHU216DAVISVP2,2013-06-21 20:36:00,
2013-06-21 16:39:00,85.1,62.1,29.31,SSW,192,4.0,15.0,46,0.00,,,0.00,WUHU216DAVISVP2,2013-06-21 20:39:00,
2013-06-21 16:40:00,85.1,62.1,29.31,South,186,4.0,15.0,46,0.00,,,0.00,WUHU216DAVISVP2,2013-06-21 20:40:00,
2013-06-21 16:41:00,85.1,62.0,29.31,SSE,162,1.0,15.0,46,0.00,,,0.00,WUHU216DAVISVP2,2013-06-21 20:41:00,
2013-06-21 16:42:00,85.1,62.0,29.31,SSE,162,1.0,15.0,46,0.00,,,0.00,WUHU216DAVISVP2,2013-06-21 20:42:00,
2013-06-21 16:46:00,85.2,62.1,29.31,South,177,4.0,12.0,46,0.00,,,0.00,WUHU216DAVISVP2,2013-06-21 20:46:00,
2013-06-21 16:47:00,85.2,60.8,29.31,South,181,6.0,12.0,44,0.00,,,0.00,WUHU216DAVISVP2,2013-06-21 20:47:00,
2013-06-21 16:50:00,85.3,60.9,29.30,SSW,208,5.0,10.0,44,0.00,,,0.00,WUHU216DAVISVP2,2013-06-21 20:50:00,
2013-06-21 16:51:00,85.3,61.6,29.30,SSW,196,1.0,10.0,45,0.00,,,0.00,WUHU216DAVISVP2,2013-06-21 20:51:00,
2013-06-21 16:52:00,85.3,60.9,29.30,South,177,0.0,8.0,44,0.00,,,0.00,WUHU216DAVISVP2,2013-06-21 20:52:00,
2013-06-21 16:55:00,85.4,61.6,29.30,South,177,4.0,8.0,45,0.00,,,0.00,WUHU216DAVISVP2,2013-06-21 20:55:00,
2013-06-21 16:56:00,85.4,61.6,29.30,SSW,200,0.0,8.0,45,0.00,,,0.00,WUHU216DAVISVP2,2013-06-21 20:56:00,
2013-06-21 16:57:00,85.4,62.3,29.30,SW,228,4.0,8.0,46,0.00,,,0.00,WUHU216DAVISVP2,2013-06-21 20:57:00,
2013-06-21 17:00:00,85.5,63.1,29.30,SSW,205,2.0,8.0,47,0.00,,,0.00,WUHU216DAVISVP2,2013-06-21 21:00:00,
2013-06-21 17:01:00,85.5,63.1,29.30,South,178,1.0,8.0,47,0.00,,,0.00,WUHU216DAVISVP2,2013-06-21 21:01:00,
2013-06-21 17:02:00,85.5,63.1,29.30,SSE,158,6.0,8.0,47,0.00,,,0.00,WUHU216DAVISVP2,2013-06-21 21:02:00,
2013-06-21 17:04:00,85.5,63.1,29.30,SSW,211,4.0,9.0,47,0.00,,,0.00,WUHU216DAVISVP2,2013-06-21 21:04:00,
2013-06-21 17:05:00,85.4,63.0,29.30,SW,219,2.0,9.0,47,0.00,,,0.00,WUHU216DAVISVP2,2013-06-21 21:05:00,
2013-06-21 17:06:00,85.4,63.0,29.30,South,172,5.0,9.0,47,0.00,,,0.00,WUHU216DAVISVP2,2013-06-21 21:06:00,
2013-06-21 17:08:00,85.3,61.6,29.30,SW,228,4.0,9.0,45,0.00,,,0.00,WUHU216DAVISVP2,2013-06-21 21:08:00,
2013-06-21 17:09:00,85.3,62.2,29.30,South,174,5.0,9.0,46,0.00,,,0.00,WUHU216DAVISVP2,2013-06-21 21:09:00,
2013-06-21 17:10:00,85.3,61.6,29.30,South,169,5.0,9.0,45,0.00,,,0.00,WUHU216DAVISVP2,2013-06-21 21:10:00,
2013-06-21 17:12:00,85.2,61.5,29.30,South,170,3.0,9.0,45,0.00,,,0.00,WUHU216DAVISVP2,2013-06-21 21:12:00,
2013-06-21 17:13:00,85.2,61.5,29.30,South,170,2.0,9.0,45,0.00,,,0.00,WUHU216DAVISVP2,2013-06-21 21:13:00,
2013-06-21 17:15:00,85.2,60.9,29.30,South,170,4.0,9.0,44,0.00,,,0.00,WUHU216DAVISVP2,2013-06-21 21:15:00,
2013-06-21 17:16:00,85.2,63.4,29.30,South,174,3.0,9.0,48,0.00,,,0.00,WUHU216DAVISVP2,2013-06-21 21:16:00,
2013-06-21 17:17:00,85.2,61.5,29.30,South,172,5.0,9.0,45,0.00,,,0.00,WUHU216DAVISVP2,2013-06-21 21:17:00,
2013-06-21 17:18:00,85.2,61.5,29.30,SSW,192,2.0,9.0,45,0.00,,,0.00,WUHU216DAVISVP2,2013-06-21 21:18:00,
2013-06-21 17:20:00,85.2,62.2,29.30,South,185,6.0,9.0,46,0.00,,,0.00,WUHU216DAVISVP2,2013-06-21 21:20:00,
2013-06-21 17:21:00,85.1,62.1,29.30,SW,221,8.0,9.0,46,0.00,,,0.00,WUHU216DAVISVP2,2013-06-21 21:21:00,
2013-06-21 17:22:00,85.0,62.0,29.30,South,184,4.0,9.0,46,0.00,,,0.00,WUHU216DAVISVP2,2013-06-21 21:22:00,
2013-06-21 17:23:00,85.0,62.0,29.30,SSW,210,3.0,8.0,46,0.00,,,0.00,WUHU216DAVISVP2,2013-06-21 21:23:00,
2013-06-21 17:25:00,85.0,62.6,29.30,South,191,1.0,8.0,47,0.00,,,0.00,WUHU216DAVISVP2,2013-06-21 21:25:00,
2013-06-21 17:26:00,85.0,62.0,29.30,South,184,6.0,8.0,46,0.00,,,0.00,WUHU216DAVISVP2,2013-06-21 21:26:00,
2013-06-21 17:27:00,85.0,62.6,29.30,SSW,192,4.0,8.0,47,0.00,,,0.00,WUHU216DAVISVP2,2013-06-21 21:27:00,
2013-06-21 17:28:00,85.0,62.6,29.30,SSW,212,1.0,8.0,47,0.00,,,0.00,WUHU216DAVISVP2,2013-06-21 21:28:00,
2013-06-21 17:30:00,85.0,63.8,29.29,SW,221,4.0,8.0,49,0.00,,,0.00,WUHU216DAVISVP2,2013-06-21 21:30:00,
2013-06-21 17:31:00,84.9,62.5,29.29,South,183,5.0,8.0,47,0.00,,,0.00,WUHU216DAVISVP2,2013-06-21 21:31:00,
2013-06-21 17:32:00,84.9,63.1,29.29,South,181,2.0,8.0,48,0.00,,,0.00,WUHU216DAVISVP2,2013-06-21 21:32:00,
2013-06-21 17:34:00,84.9,63.7,29.29,SSW,209,2.0,8.0,49,0.00,,,0.00,WUHU216DAVISVP2,2013-06-21 21:34:00,
2013-06-21 17:35:00,84.9,63.1,29.29,SW,228,2.0,8.0,48,0.00,,,0.00,WUHU216DAVISVP2,2013-06-21 21:35:00,
2013-06-21 17:36:00,84.8,62.4,29.29,SW,228,4.0,8.0,47,0.00,,,0.00,WUHU216DAVISVP2,2013-06-21 21:36:00,
2013-06-21 17:37:00,84.8,63.0,29.29,SW,228,2.0,8.0,48,0.00,,,0.00,WUHU216DAVISVP2,2013-06-21 21:37:00,
2013-06-21 17:39:00,84.8,63.0,29.29,SSW,209,0.0,8.0,48,0.00,,,0.00,WUHU216DAVISVP2,2013-06-21 21:39:00,
2013-06-21 17:41:00,84.8,63.0,29.29,SW,216,3.0,7.0,48,0.00,,,0.00,WUHU216DAVISVP2,2013-06-21 21:41:00,
2013-06-21 17:42:00,84.8,63.0,29.29,SW,216,0.0,7.0,48,0.00,,,0.00,WUHU216DAVISVP2,2013-06-21 21:42:00,
2013-06-21 17:43:00,84.8,63.6,29.29,SW,216,0.0,7.0,49,0.00,,,0.00,WUHU216DAVISVP2,2013-06-21 21:43:00,
2013-06-21 17:44:00,84.9,63.7,29.29,SW,216,2.0,7.0,49,0.00,,,0.00,WUHU216DAVISVP2,2013-06-21 21:44:00,
2013-06-21 17:47:00,84.8,62.3,29.30,SW,220,2.0,7.0,47,0.00,,,0.00,WUHU216DAVISVP2,2013-06-21 21:47:00,
2013-06-21 17:48:00,84.9,63.0,29.30,SW,220,0.0,7.0,48,0.00,,,0.00,WUHU216DAVISVP2,2013-06-21 21:48:00,
2013-06-21 17:49:00,84.9,64.8,29.30,SW,220,0.0,7.0,51,0.00,,,0.00,WUHU216DAVISVP2,2013-06-21 21:49:00,
2013-06-21 17:50:00,84.9,64.8,29.30,SW,220,0.0,7.0,51,0.00,,,0.00,WUHU216DAVISVP2,2013-06-21 21:50:00,
2013-06-21 17:52:00,84.9,64.3,29.30,SSW,208,1.0,7.0,50,0.00,,,0.00,WUHU216DAVISVP2,2013-06-21 21:52:00,
2013-06-21 17:53:00,84.8,63.0,29.30,South,191,0.0,7.0,48,0.00,,,0.00,WUHU216DAVISVP2,2013-06-21 21:53:00,
2013-06-21 17:54:00,84.8,62.4,29.30,SSW,193,1.0,7.0,47,0.00,,,0.00,WUHU216DAVISVP2,2013-06-21 21:54:00,
2013-06-21 17:55:00,84.8,62.4,29.30,SSW,193,1.0,6.0,47,0.00,,,0.00,WUHU216DAVISVP2,2013-06-21 21:55:00,
2013-06-21 17:58:00,84.8,63.0,29.30,South,185,1.0,6.0,48,0.00,,,0.00,WUHU216DAVISVP2,2013-06-21 21:58:00,
2013-06-21 17:59:00,84.8,63.0,29.30,South,185,0.0,6.0,48,0.00,,,0.00,WUHU216DAVISVP2,2013-06-21 21:59:00,
2013-06-21 18:00:00,84.8,62.4,29.30,South,185,1.0,6.0,47,0.00,,,0.00,WUHU216DAVISVP2,2013-06-21 22:00:00,
2013-06-21 18:03:00,84.8,63.0,29.30,South,189,4.0,7.0,48,0.00,,,0.00,WUHU216DAVISVP2,2013-06-21 22:03:00,
2013-06-21 18:04:00,84.7,62.9,29.29,SSW,199,1.0,7.0,48,0.00,,,0.00,WUHU216DAVISVP2,2013-06-21 22:04:00,
2013-06-21 18:05:00,84.7,63.6,29.29,South,187,4.0,7.0,49,0.00,,,0.00,WUHU216DAVISVP2,2013-06-21 22:05:00,
2013-06-21 18:08:00,84.6,63.3,29.29,SSW,202,5.0,7.0,49,0.00,,,0.00,WUHU216DAVISVP2,2013-06-21 22:08:00,
2013-06-21 18:09:00,84.6,62.1,29.29,South,187,4.0,7.0,47,0.00,,,0.00,WUHU216DAVISVP2,2013-06-21 22:09:00,
2013-06-21 18:10:00,84.6,62.7,29.29,South,190,1.0,7.0,48,0.00,,,0.00,WUHU216DAVISVP2,2013-06-21 22:10:00,
2013-06-21 18:13:00,84.5,63.8,29.29,SSW,193,1.0,7.0,50,0.00,,,0.00,WUHU216DAVISVP2,2013-06-21 22:13:00,
2013-06-21 18:14:00,84.5,63.8,29.29,South,191,1.0,7.0,50,0.00,,,0.00,WUHU216DAVISVP2,2013-06-21 22:14:00,
2013-06-21 18:15:00,84.5,63.8,29.29,South,191,1.0,7.0,50,0.00,,,0.00,WUHU216DAVISVP2,2013-06-21 22:15:00,
2013-06-21 18:18:00,84.4,63.7,29.29,SW,228,3.0,7.0,50,0.00,,,0.00,WUHU216DAVISVP2,2013-06-21 22:18:00,
2013-06-21 18:19:00,84.3,63.6,29.29,South,187,5.0,8.0,50,0.00,,,0.00,WUHU216DAVISVP2,2013-06-21 22:19:00,
2013-06-21 18:21:00,84.3,63.6,29.29,SSW,212,2.0,8.0,50,0.00,,,0.00,WUHU216DAVISVP2,2013-06-21 22:21:00,
2013-06-21 18:24:00,84.2,63.5,29.29,South,189,0.0,8.0,50,0.00,,,0.00,WUHU216DAVISVP2,2013-06-21 22:24:00,
2013-06-21 18:26:00,84.2,63.7,29.29,SSW,204,0.0,8.0,50,0.00,,,0.00,WUHU216DAVISVP2,2013-06-21 22:26:00,
2013-06-21 18:29:00,84.1,62.9,29.30,South,185,7.0,8.0,49,0.00,,,0.00,WUHU216DAVISVP2,2013-06-21 22:29:00,
2013-06-21 18:31:00,84.0,63.4,29.30,South,186,4.0,8.0,50,0.00,,,0.00,WUHU216DAVISVP2,2013-06-21 22:31:00,
2013-06-21 18:34:00,83.9,63.3,29.30,SSW,197,0.0,8.0,50,0.00,,,0.00,WUHU216DAVISVP2,2013-06-21 22:34:00,
2013-06-21 18:36:00,83.8,63.2,29.30,SSW,206,0.0,8.0,50,0.00,,,0.00,WUHU216DAVISVP2,2013-06-21 22:36:00,
2013-06-21 18:39:00,83.7,63.8,29.29,SSW,210,1.0,7.0,51,0.00,,,0.00,WUHU216DAVISVP2,2013-06-21 22:39:00,
2013-06-21 18:40:00,83.7,63.8,29.29,SSW,211,5.0,7.0,51,0.00,,,0.00,WUHU216DAVISVP2,2013-06-21 22:40:00,
2013-06-21 18:41:00,83.7,63.8,29.29,SSW,210,0.0,7.0,51,0.00,,,0.00,WUHU216DAVISVP2,2013-06-21 22:41:00,
2013-06-21 18:42:00,83.7,63.8,29.29,SSW,203,1.0,7.0,51,0.00,,,0.00,WUHU216DAVISVP2,2013-06-21 22:42:00,
2013-06-21 18:45:00,83.6,63.7,29.29,SSW,201,0.0,7.0,51,0.00,,,0.00,WUHU216DAVISVP2,2013-06-21 22:45:00,
2013-06-21 18:46:00,83.6,64.3,29.29,SW,220,1.0,9.0,52,0.00,,,0.00,WUHU216DAVISVP2,2013-06-21 22:46:00,
2013-06-21 18:47:00,83.6,64.3,29.29,South,191,4.0,9.0,52,0.00,,,0.00,WUHU216DAVISVP2,2013-06-21 22:47:00,
2013-06-21 18:48:00,83.6,63.7,29.29,SW,233,4.0,9.0,51,0.00,,,0.00,WUHU216DAVISVP2,2013-06-21 22:48:00,
2013-06-21 18:50:00,83.6,64.8,29.29,SW,218,2.0,9.0,53,0.00,,,0.00,WUHU216DAVISVP2,2013-06-21 22:50:00,
2013-06-21 18:52:00,83.6,64.8,29.29,South,185,3.0,9.0,53,0.00,,,0.00,WUHU216DAVISVP2,2013-06-21 22:52:00,
2013-06-21 18:54:00,83.5,64.2,29.28,SW,221,5.0,9.0,52,0.00,,,0.00,WUHU216DAVISVP2,2013-06-21 22:54:00,
2013-06-21 18:55:00,83.5,64.2,29.28,South,189,4.0,9.0,52,0.00,,,0.00,WUHU216DAVISVP2,2013-06-21 22:55:00,
2013-06-21 18:57:00,83.4,64.1,29.29,SW,224,2.0,9.0,52,0.00,,,0.00,WUHU216DAVISVP2,2013-06-21 22:57:00,
2013-06-21 18:59:00,83.4,64.7,29.28,SW,220,1.0,9.0,53,0.00,,,0.00,WUHU216DAVISVP2,2013-06-21 22:59:00,
2013-06-21 19:00:00,83.4,64.7,29.28,SW,220,1.0,9.0,53,0.00,,,0.00,WUHU216DAVISVP2,2013-06-21 23:00:00,
2013-06-21 19:02:00,83.4,64.7,29.28,SW,220,0.0,9.0,53,0.00,,,0.00,WUHU216DAVISVP2,2013-06-21 23:02:00,
2013-06-21 19:03:00,83.4,64.7,29.28,SW,218,1.0,9.0,53,0.00,,,0.00,WUHU216DAVISVP2,2013-06-21 23:03:00,
2013-06-21 19:05:00,83.4,64.1,29.28,SSE,166,2.0,8.0,52,0.00,,,0.00,WUHU216DAVISVP2,2013-06-21 23:05:00,
2013-06-21 19:07:00,83.3,64.0,29.28,SW,222,2.0,7.0,52,0.00,,,0.00,WUHU216DAVISVP2,2013-06-21 23:07:00,
2013-06-21 19:08:00,83.3,64.0,29.28,SSW,195,4.0,7.0,52,0.00,,,0.00,WUHU216DAVISVP2,2013-06-21 23:08:00,
2013-06-21 19:10:00,83.2,63.9,29.27,SSW,193,5.0,8.0,52,0.00,,,0.00,WUHU216DAVISVP2,2013-06-21 23:10:00,
2013-06-21 19:11:00,83.2,63.9,29.27,South,183,1.0,8.0,52,0.00,,,0.00,WUHU216DAVISVP2,2013-06-21 23:11:00,
2013-06-21 19:12:00,83.1,64.4,29.27,SSW,197,4.0,8.0,53,0.00,,,0.00,WUHU216DAVISVP2,2013-06-21 23:12:00,
2013-06-21 19:13:00,83.0,64.3,29.27,SSW,193,4.0,8.0,53,0.00,,,0.00,WUHU216DAVISVP2,2013-06-21 23:13:00,
2013-06-21 19:16:00,82.9,64.5,29.27,SW,224,4.0,8.0,54,0.00,,,0.00,WUHU216DAVISVP2,2013-06-21 23:16:00,
2013-06-21 19:17:00,82.8,64.5,29.27,SW,214,1.0,8.0,54,0.00,,,0.00,WUHU216DAVISVP2,2013-06-21 23:17:00,
2013-06-21 19:18:00,82.8,64.5,29.27,WSW,239,5.0,9.0,54,0.00,,,0.00,WUHU216DAVISVP2,2013-06-21 23:18:00,
2013-06-21 19:19:00,82.7,64.4,29.27,WSW,237,4.0,10.0,54,0.00,,,0.00,WUHU216DAVISVP2,2013-06-21 23:19:00,
2013-06-21 19:21:00,82.7,64.6,29.27,SSW,201,2.0,10.0,54,0.00,,,0.00,WUHU216DAVISVP2,2013-06-21 23:21:00,
2013-06-21 19:22:00,82.7,64.6,29.27,SW,221,5.0,11.0,54,0.00,,,0.00,WUHU216DAVISVP2,2013-06-21 23:22:00,
2013-06-21 19:23:00,82.6,65.0,29.27,SSW,199,2.0,11.0,55,0.00,,,0.00,WUHU216DAVISVP2,2013-06-21 23:23:00,
2013-06-21 19:24:00,82.6,64.5,29.27,WSW,244,7.0,11.0,54,0.00,,,0.00,WUHU216DAVISVP2,2013-06-21 23:24:00,
2013-06-21 19:26:00,82.6,64.8,29.27,SW,228,4.0,11.0,55,0.00,,,0.00,WUHU216DAVISVP2,2013-06-21 23:26:00,
2013-06-21 19:27:00,82.6,64.8,29.27,WSW,255,6.0,11.0,55,0.00,,,0.00,WUHU216DAVISVP2,2013-06-21 23:27:00,
2013-06-21 19:28:00,82.6,64.3,29.27,WSW,249,12.0,16.0,54,0.00,,,0.00,WUHU216DAVISVP2,2013-06-21 23:28:00,
2013-06-21 19:29:00,82.7,63.8,29.27,WSW,257,10.0,16.0,53,0.00,,,0.00,WUHU216DAVISVP2,2013-06-21 23:29:00,
2013-06-21 19:31:00,82.8,64.5,29.27,WSW,247,12.0,19.0,54,0.00,,,0.00,WUHU216DAVISVP2,2013-06-21 23:31:00,
2013-06-21 19:32:00,82.7,65.4,29.27,West,280,7.0,19.0,56,0.00,,,0.00,WUHU216DAVISVP2,2013-06-21 23:32:00,
2013-06-21 19:33:00,82.4,65.1,29.27,WNW,283,9.0,19.0,56,0.00,,,0.00,WUHU216DAVISVP2,2013-06-21 23:33:00,
2013-06-21 19:34:00,82.2,65.4,29.27,WNW,302,11.0,19.0,57,0.00,,,0.00,WUHU216DAVISVP2,2013-06-21 23:34:00,
2013-06-21 19:36:00,81.3,65.6,29.27,West,268,5.0,19.0,59,0.00,,,0.00,WUHU216DAVISVP2,2013-06-21 23:36:00,
2013-06-21 19:37:00,81.1,65.9,29.27,WSW,256,9.0,19.0,60,0.00,,,0.00,WUHU216DAVISVP2,2013-06-21 23:37:00,
2013-06-21 19:38:00,80.9,65.7,29.27,WSW,250,7.0,19.0,60,0.00,,,0.00,WUHU216DAVISVP2,2013-06-21 23:38:00,
2013-06-21 19:39:00,80.8,65.6,29.27,WSW,250,9.0,19.0,60,0.00,,,0.00,WUHU216DAVISVP2,2013-06-21 23:39:00,
2013-06-21 19:41:00,80.5,65.8,29.26,WSW,258,8.0,19.0,61,0.00,,,0.00,WUHU216DAVISVP2,2013-06-21 23:41:00,
2013-06-21 19:42:00,80.3,65.6,29.26,WSW,251,8.0,19.0,61,0.00,,,0.00,WUHU216DAVISVP2,2013-06-21 23:42:00,
2013-06-21 19:43:00,80.3,65.6,29.26,WNW,291,7.0,19.0,61,0.00,,,0.00,WUHU216DAVISVP2,2013-06-21 23:43:00,
2013-06-21 19:44:00,80.2,66.0,29.26,WSW,249,6.0,19.0,62,0.00,,,0.00,WUHU216DAVISVP2,2013-06-21 23:44:00,
2013-06-21 19:46:00,80.0,65.8,29.26,West,270,6.0,19.0,62,0.00,,,0.00,WUHU216DAVISVP2,2013-06-21 23:46:00,
2013-06-21 19:47:00,80.0,65.8,29.26,West,266,8.0,19.0,62,0.00,,,0.00,WUHU216DAVISVP2,2013-06-21 23:47:00,
2013-06-21 19:49:00,80.0,65.8,29.26,West,263,8.0,18.0,62,0.00,,,0.00,WUHU216DAVISVP2,2013-06-21 23:49:00,
2013-06-21 19:50:00,79.9,66.2,29.26,West,266,10.0,18.0,63,0.00,,,0.00,WUHU216DAVISVP2,2013-06-21 23:50:00,
2013-06-21 19:52:00,79.8,66.1,29.26,West,272,11.0,18.0,63,0.00,,,0.00,WUHU216DAVISVP2,2013-06-21 23:52:00,
2013-06-21 19:53:00,79.8,66.1,29.26,West,272,7.0,18.0,63,0.00,,,0.00,WUHU216DAVISVP2,2013-06-21 23:53:00,
2013-06-21 19:54:00,79.8,66.1,29.26,West,263,6.0,18.0,63,0.00,,,0.00,WUHU216DAVISVP2,2013-06-21 23:54:00,
2013-06-21 19:55:00,79.7,66.0,29.26,WSW,247,10.0,18.0,63,0.00,,,0.00,WUHU216DAVISVP2,2013-06-21 23:55:00,
2013-06-21 19:57:00,79.7,66.0,29.26,SW,230,6.0,18.0,63,0.00,,,0.00,WUHU216DAVISVP2,2013-06-21 23:57:00,
2013-06-21 19:58:00,79.6,65.9,29.25,WSW,241,11.0,18.0,63,0.00,,,0.00,WUHU216DAVISVP2,2013-06-21 23:58:00,
2013-06-21 19:59:00,79.6,65.9,29.25,WSW,241,12.0,18.0,63,0.00,,,0.00,WUHU216DAVISVP2,2013-06-21 23:59:00,
2013-06-21 20:01:00,79.6,65.9,29.24,WSW,251,10.0,18.0,63,0.00,,,0.00,WUHU216DAVISVP2,2013-06-22 00:01:00,
2013-06-21 20:02:00,79.5,66.0,29.24,SW,220,18.0,26.0,63,0.00,,,0.00,WUHU216DAVISVP2,2013-06-22 00:02:00,
2013-06-21 20:03:00,79.5,66.0,29.24,West,263,12.0,26.0,63,0.00,,,0.00,WUHU216DAVISVP2,2013-06-22 00:03:00,
2013-06-21 20:04:00,79.4,66.4,29.24,WSW,242,15.0,26.0,64,0.00,,,0.00,WUHU216DAVISVP2,2013-06-22 00:04:00,
2013-06-21 20:05:00,79.4,66.4,29.24,SW,233,8.0,26.0,64,0.00,,,0.00,WUHU216DAVISVP2,2013-06-22 00:05:00,
2013-06-21 20:06:00,79.3,66.3,29.23,WSW,241,6.0,26.0,64,0.00,,,0.00,WUHU216DAVISVP2,2013-06-22 00:06:00,
2013-06-21 20:07:00,79.3,66.3,29.23,SW,226,5.0,26.0,64,0.00,,,0.00,WUHU216DAVISVP2,2013-06-22 00:07:00,
2013-06-21 20:08:00,79.2,66.0,29.23,SSW,213,10.0,26.0,64,0.00,,,0.00,WUHU216DAVISVP2,2013-06-22 00:08:00,
2013-06-21 20:10:00,79.1,66.3,29.23,WSW,249,10.0,28.0,65,0.00,,,0.00,WUHU216DAVISVP2,2013-06-22 00:10:00,
2013-06-21 20:11:00,79.0,66.2,29.23,SW,227,10.0,28.0,65,0.00,,,0.00,WUHU216DAVISVP2,2013-06-22 00:11:00,
2013-06-21 20:12:00,78.8,66.5,29.23,South,185,15.0,28.0,66,0.00,,,0.00,WUHU216DAVISVP2,2013-06-22 00:12:00,
2013-06-21 20:14:00,78.7,66.4,29.22,SW,224,4.0,28.0,66,0.00,,,0.00,WUHU216DAVISVP2,2013-06-22 00:14:00,
2013-06-21 20:15:00,78.5,66.2,29.22,SW,232,7.0,28.0,66,0.00,,,0.00,WUHU216DAVISVP2,2013-06-22 00:15:00,
2013-06-21 20:16:00,78.4,66.1,29.22,South,186,1.0,28.0,66,0.00,,,0.00,WUHU216DAVISVP2,2013-06-22 00:16:00,
2013-06-21 20:17:00,78.3,66.0,29.22,SSW,199,6.0,28.0,66,0.00,,,0.00,WUHU216DAVISVP2,2013-06-22 00:17:00,
2013-06-21 20:19:00,78.1,66.5,29.21,WSW,239,11.0,28.0,67,0.00,,,0.00,WUHU216DAVISVP2,2013-06-22 00:19:00,
2013-06-21 20:20:00,77.9,66.3,29.21,South,176,8.0,28.0,67,0.00,,,0.00,WUHU216DAVISVP2,2013-06-22 00:20:00,
2013-06-21 20:21:00,77.9,66.3,29.21,SSW,195,2.0,28.0,67,0.00,,,0.00,WUHU216DAVISVP2,2013-06-22 00:21:00,
2013-06-21 20:23:00,77.6,66.0,29.20,South,185,10.0,28.0,67,0.00,,,0.00,WUHU216DAVISVP2,2013-06-22 00:23:00,
2013-06-21 20:24:00,77.4,66.2,29.20,SSW,194,14.0,28.0,68,0.00,,,0.00,WUHU216DAVISVP2,2013-06-22 00:24:00,
2013-06-21 20:26:00,77.2,66.0,29.20,South,189,10.0,28.0,68,0.00,,,0.00,WUHU216DAVISVP2,2013-06-22 00:26:00,
2013-06-21 20:28:00,76.8,65.4,29.20,South,191,7.0,28.0,68,0.00,,,0.00,WUHU216DAVISVP2,2013-06-22 00:28:00,
2013-06-21 20:30:00,76.5,65.6,29.20,WSW,245,13.0,22.0,69,0.00,,,0.00,WUHU216DAVISVP2,2013-06-22 00:30:00,
2013-06-21 20:31:00,76.4,65.5,29.19,SSW,205,6.0,22.0,69,0.00,,,0.00,WUHU216DAVISVP2,2013-06-22 00:31:00,
2013-06-21 20:33:00,76.0,65.5,29.19,South,185,15.0,21.0,70,0.00,,,0.00,WUHU216DAVISVP2,2013-06-22 00:33:00,
2013-06-21 20:35:00,75.9,65.4,29.19,SW,221,2.0,21.0,70,0.00,,,0.00,WUHU216DAVISVP2,2013-06-22 00:35:00,
2013-06-21 20:36:00,75.8,65.5,29.19,SW,221,6.0,21.0,70,0.00,,,0.00,WUHU216DAVISVP2,2013-06-22 00:36:00,
2013-06-21 20:37:00,75.8,65.9,29.19,South,191,2.0,21.0,71,0.00,,,0.00,WUHU216DAVISVP2,2013-06-22 00:37:00,
2013-06-21 20:39:00,75.6,65.7,29.18,South,180,7.0,21.0,71,0.00,,,0.00,WUHU216DAVISVP2,2013-06-22 00:39:00,
2013-06-21 20:40:00,75.5,65.6,29.18,WSW,244,10.0,21.0,71,0.00,,,0.00,WUHU216DAVISVP2,2013-06-22 00:40:00,
2013-06-21 20:42:00,75.4,65.9,29.18,South,186,8.0,21.0,72,0.00,,,0.00,WUHU216DAVISVP2,2013-06-22 00:42:00,
2013-06-21 20:44:00,75.4,65.3,29.18,SW,230,5.0,21.0,71,0.00,,,0.00,WUHU216DAVISVP2,2013-06-22 00:44:00,
2013-06-21 20:45:00,75.5,65.4,29.18,SSW,199,4.0,21.0,71,0.00,,,0.00,WUHU216DAVISVP2,2013-06-22 00:45:00,
2013-06-21 20:47:00,75.6,65.5,29.18,South,187,5.0,23.0,71,0.00,,,0.00,WUHU216DAVISVP2,2013-06-22 00:47:00,
2013-06-21 20:49:00,75.8,65.3,29.18,SSW,201,10.0,23.0,70,0.00,,,0.00,WUHU216DAVISVP2,2013-06-22 00:49:00,
2013-06-21 20:51:00,75.9,65.4,29.17,SW,235,8.0,23.0,70,0.00,,,0.00,WUHU216DAVISVP2,2013-06-22 00:51:00,
2013-06-21 20:52:00,76.0,65.5,29.17,South,188,8.0,23.0,70,0.00,,,0.00,WUHU216DAVISVP2,2013-06-22 00:52:00,
2013-06-21 20:55:00,76.2,65.5,29.16,South,183,12.0,23.0,69,0.00,,,0.00,WUHU216DAVISVP2,2013-06-22 00:55:00,
2013-06-21 20:56:00,76.3,65.6,29.16,WSW,243,8.0,23.0,69,0.00,,,0.00,WUHU216DAVISVP2,2013-06-22 00:56:00,
2013-06-21 20:57:00,76.4,65.7,29.16,South,180,8.0,23.0,69,0.00,,,0.00,WUHU216DAVISVP2,2013-06-22 00:57:00,
2013-06-21 21:01:00,76.6,65.5,29.17,SW,235,8.0,23.0,68,0.00,,,0.00,WUHU216DAVISVP2,2013-06-22 01:01:00,
2013-06-21 21:02:00,76.7,65.6,29.17,SW,228,4.0,23.0,68,0.00,,,0.00,WUHU216DAVISVP2,2013-06-22 01:02:00,
2013-06-21 21:06:00,76.9,65.5,29.17,SSW,208,2.0,23.0,68,0.00,,,0.00,WUHU216DAVISVP2,2013-06-22 01:06:00,
2013-06-21 21:07:00,77.0,65.6,29.17,South,180,4.0,23.0,68,0.00,,,0.00,WUHU216DAVISVP2,2013-06-22 01:07:00,
2013-06-21 21:11:00,77.0,65.6,29.17,South,176,10.0,23.0,68,0.00,,,0.00,WUHU216DAVISVP2,2013-06-22 01:11:00,
2013-06-21 21:12:00,77.0,65.6,29.17,SSW,205,6.0,23.0,68,0.00,,,0.00,WUHU216DAVISVP2,2013-06-22 01:12:00,
2013-06-21 21:13:00,77.0,65.6,29.17,SW,220,9.0,23.0,68,0.00,,,0.00,WUHU216DAVISVP2,2013-06-22 01:13:00,
2013-06-21 21:16:00,77.2,65.6,29.17,SW,220,4.0,22.0,67,0.00,,,0.00,WUHU216DAVISVP2,2013-06-22 01:16:00,
2013-06-21 21:17:00,77.3,65.7,29.17,WSW,237,4.0,22.0,67,0.00,,,0.00,WUHU216DAVISVP2,2013-06-22 01:17:00,
2013-06-21 21:18:00,77.3,65.7,29.17,WSW,247,10.0,22.0,67,0.00,,,0.00,WUHU216DAVISVP2,2013-06-22 01:18:00,
2013-06-21 21:21:00,77.3,65.5,29.17,South,185,6.0,22.0,67,0.00,,,0.00,WUHU216DAVISVP2,2013-06-22 01:21:00,
2013-06-21 21:23:00,77.3,65.5,29.17,SW,230,3.0,15.0,67,0.00,,,0.00,WUHU216DAVISVP2,2013-06-22 01:23:00,
2013-06-21 21:26:00,77.3,65.5,29.17,SSW,208,3.0,21.0,67,0.00,,,0.00,WUHU216DAVISVP2,2013-06-22 01:26:00,
2013-06-21 21:28:00,77.3,65.5,29.17,SW,215,4.0,21.0,67,0.00,,,0.00,WUHU216DAVISVP2,2013-06-22 01:28:00,
2013-06-21 21:32:00,77.3,65.7,29.17,SSW,210,5.0,21.0,67,0.00,,,0.00,WUHU216DAVISVP2,2013-06-22 01:32:00,
2013-06-21 21:33:00,77.3,65.7,29.17,SW,224,3.0,21.0,67,0.00,,,0.00,WUHU216DAVISVP2,2013-06-22 01:33:00,
2013-06-21 21:34:00,77.3,65.7,29.18,SW,217,2.0,21.0,67,0.00,,,0.00,WUHU216DAVISVP2,2013-06-22 01:34:00,
2013-06-21 21:37:00,77.3,65.7,29.18,SW,217,1.0,21.0,67,0.00,,,0.00,WUHU216DAVISVP2,2013-06-22 01:37:00,
2013-06-21 21:38:00,77.3,65.5,29.19,West,278,6.0,21.0,67,0.00,,,0.00,WUHU216DAVISVP2,2013-06-22 01:38:00,
2013-06-21 21:39:00,77.3,65.5,29.19,West,278,3.0,21.0,67,0.00,,,0.00,WUHU216DAVISVP2,2013-06-22 01:39:00,
2013-06-21 21:42:00,77.4,65.6,29.20,NW,325,7.0,21.0,67,0.00,,,0.00,WUHU216DAVISVP2,2013-06-22 01:42:00,
2013-06-21 21:43:00,77.4,65.6,29.21,NW,320,5.0,14.0,67,0.00,,,0.00,WUHU216DAVISVP2,2013-06-22 01:43:00,
2013-06-21 21:44:00,77.4,65.6,29.21,NW,314,5.0,14.0,67,0.00,,,0.00,WUHU216DAVISVP2,2013-06-22 01:44:00,
2013-06-21 21:47:00,77.5,65.2,29.20,WNW,301,6.0,8.0,66,0.00,,,0.00,WUHU216DAVISVP2,2013-06-22 01:47:00,
2013-06-21 21:48:00,77.5,65.2,29.21,WNW,297,9.0,9.0,66,0.00,,,0.00,WUHU216DAVISVP2,2013-06-22 01:48:00,
2013-06-21 21:49:00,77.4,65.1,29.21,WNW,301,7.0,9.0,66,0.00,,,0.00,WUHU216DAVISVP2,2013-06-22 01:49:00,
2013-06-21 21:52:00,77.3,65.5,29.21,NNW,332,5.0,9.0,67,0.00,,,0.00,WUHU216DAVISVP2,2013-06-22 01:52:00,
2013-06-21 21:53:00,77.2,65.4,29.22,North,354,5.0,9.0,67,0.00,,,0.00,WUHU216DAVISVP2,2013-06-22 01:53:00,
2013-06-21 21:54:00,77.2,65.4,29.22,North,354,4.0,9.0,67,0.00,,,0.00,WUHU216DAVISVP2,2013-06-22 01:54:00,
2013-06-21 21:57:00,77.0,65.2,29.22,North,354,5.0,9.0,67,0.00,,,0.00,WUHU216DAVISVP2,2013-06-22 01:57:00,
2013-06-21 21:58:00,76.9,65.5,29.22,NNW,342,4.0,9.0,68,0.00,,,0.00,WUHU216DAVISVP2,2013-06-22 01:58:00,
2013-06-21 21:59:00,76.9,65.5,29.22,NNW,343,4.0,9.0,68,0.00,,,0.00,WUHU216DAVISVP2,2013-06-22 01:59:00,
2013-06-21 22:03:00,76.7,65.3,29.23,NW,326,4.0,9.0,68,0.00,,,0.00,WUHU216DAVISVP2,2013-06-22 02:03:00,
2013-06-21 22:04:00,76.6,65.7,29.23,NNW,328,4.0,9.0,69,0.00,,,0.00,WUHU216DAVISVP2,2013-06-22 02:04:00,
2013-06-21 22:08:00,76.4,66.1,29.23,NNW,341,7.0,8.0,70,0.00,,,0.00,WUHU216DAVISVP2,2013-06-22 02:08:00,
2013-06-21 22:09:00,76.4,66.1,29.24,NNW,331,9.0,9.0,70,0.00,,,0.00,WUHU216DAVISVP2,2013-06-22 02:09:00,
2013-06-21 22:10:00,76.4,66.1,29.24,NNW,333,6.0,9.0,70,0.00,,,0.00,WUHU216DAVISVP2,2013-06-22 02:10:00,
2013-06-21 22:13:00,76.3,66.0,29.24,NW,322,5.0,9.0,70,0.00,,,0.00,WUHU216DAVISVP2,2013-06-22 02:13:00,
2013-06-21 22:14:00,76.2,65.9,29.24,NNW,331,5.0,9.0,70,0.00,,,0.00,WUHU216DAVISVP2,2013-06-22 02:14:00,
2013-06-21 22:15:00,76.2,65.9,29.24,NNW,335,8.0,9.0,70,0.00,,,0.00,WUHU216DAVISVP2,2013-06-22 02:15:00,
2013-06-21 22:19:00,76.2,66.1,29.25,NNW,333,8.0,9.0,71,0.00,,,0.00,WUHU216DAVISVP2,2013-06-22 02:19:00,
2013-06-21 22:20:00,76.1,66.0,29.25,NNW,331,5.0,9.0,71,0.00,,,0.00,WUHU216DAVISVP2,2013-06-22 02:20:00,
2013-06-21 22:24:00,75.9,66.0,29.25,NW,322,5.0,9.0,71,0.00,,,0.00,WUHU216DAVISVP2,2013-06-22 02:24:00,
2013-06-21 22:25:00,75.9,66.0,29.25,NNW,331,5.0,9.0,71,0.00,,,0.00,WUHU216DAVISVP2,2013-06-22 02:25:00,
2013-06-21 22:29:00,75.8,66.3,29.25,NW,326,6.0,9.0,72,0.00,,,0.00,WUHU216DAVISVP2,2013-06-22 02:29:00,
2013-06-21 22:30:00,75.8,66.3,29.25,NNW,331,6.0,9.0,72,0.00,,,0.00,WUHU216DAVISVP2,2013-06-22 02:30:00,
2013-06-21 22:31:00,75.8,66.3,29.26,NNW,329,6.0,9.0,72,0.00,,,0.00,WUHU216DAVISVP2,2013-06-22 02:31:00,
2013-06-21 22:34:00,75.7,66.2,29.26,NNW,327,5.0,9.0,72,0.00,,,0.00,WUHU216DAVISVP2,2013-06-22 02:34:00,
2013-06-21 22:35:00,75.6,66.1,29.26,NW,324,8.0,9.0,72,0.00,,,0.00,WUHU216DAVISVP2,2013-06-22 02:35:00,
2013-06-21 22:36:00,75.6,66.1,29.26,NNW,337,5.0,9.0,72,0.00,,,0.00,WUHU216DAVISVP2,2013-06-22 02:36:00,
2013-06-21 22:39:00,75.5,66.4,29.26,NNW,337,5.0,9.0,73,0.00,,,0.00,WUHU216DAVISVP2,2013-06-22 02:39:00,
2013-06-21 22:40:00,75.5,66.4,29.26,NW,311,2.0,8.0,73,0.00,,,0.00,WUHU216DAVISVP2,2013-06-22 02:40:00,
2013-06-21 22:41:00,75.5,66.4,29.26,NW,311,4.0,8.0,73,0.00,,,0.00,WUHU216DAVISVP2,2013-06-22 02:41:00,
2013-06-21 22:44:00,75.5,66.4,29.26,WNW,301,2.0,8.0,73,0.00,,,0.00,WUHU216DAVISVP2,2013-06-22 02:44:00,
2013-06-21 22:45:00,75.5,66.4,29.26,NW,324,2.0,8.0,73,0.00,,,0.00,WUHU216DAVISVP2,2013-06-22 02:45:00,
2013-06-21 22:46:00,75.5,66.4,29.26,NW,324,0.0,8.0,73,0.00,,,0.00,WUHU216DAVISVP2,2013-06-22 02:46:00,
2013-06-21 22:49:00,75.5,66.2,29.27,NNW,343,7.0,8.0,73,0.00,,,0.00,WUHU216DAVISVP2,2013-06-22 02:49:00,
2013-06-21 22:50:00,75.5,66.2,29.27,NNW,342,6.0,8.0,73,0.00,,,0.00,WUHU216DAVISVP2,2013-06-22 02:50:00,
2013-06-21 22:51:00,75.5,66.2,29.27,NNW,343,4.0,8.0,73,0.00,,,0.00,WUHU216DAVISVP2,2013-06-22 02:51:00,
2013-06-21 22:54:00,75.5,66.2,29.27,North,8,6.0,9.0,73,0.00,,,0.00,WUHU216DAVISVP2,2013-06-22 02:54:00,
2013-06-21 22:55:00,75.4,66.1,29.27,North,350,6.0,9.0,73,0.00,,,0.00,WUHU216DAVISVP2,2013-06-22 02:55:00,
2013-06-21 22:56:00,75.4,66.1,29.27,North,354,7.0,9.0,73,0.00,,,0.00,WUHU216DAVISVP2,2013-06-22 02:56:00,
2013-06-21 22:57:00,75.4,66.1,29.27,North,354,6.0,10.0,73,0.00,,,0.00,WUHU216DAVISVP2,2013-06-22 02:57:00,
2013-06-21 23:00:00,75.3,66.0,29.28,NNW,345,6.0,10.0,73,0.00,,,0.00,WUHU216DAVISVP2,2013-06-22 03:00:00,
2013-06-21 23:01:00,75.3,66.0,29.28,North,10,7.0,10.0,73,0.00,,,0.00,WUHU216DAVISVP2,2013-06-22 03:01:00,
2013-06-21 23:02:00,75.3,66.0,29.28,NNW,343,6.0,10.0,73,0.00,,,0.00,WUHU216DAVISVP2,2013-06-22 03:02:00,
2013-06-21 23:05:00,75.2,65.9,29.28,North,8,8.0,10.0,73,0.00,,,0.00,WUHU216DAVISVP2,2013-06-22 03:05:00,
2013-06-21 23:06:00,75.2,65.9,29.28,NNE,17,7.0,10.0,73,0.00,,,0.00,WUHU216DAVISVP2,2013-06-22 03:06:00,
2013-06-21 23:07:00,75.2,65.9,29.28,North,4,7.0,10.0,73,0.00,,,0.00,WUHU216DAVISVP2,2013-06-22 03:07:00,
2013-06-21 23:08:00,75.2,66.1,29.28,North,4,7.0,10.0,73,0.00,,,0.00,WUHU216DAVISVP2,2013-06-22 03:08:00,
2013-06-21 23:10:00,75.2,66.1,29.28,North,359,6.0,10.0,73,0.00,,,0.00,WUHU216DAVISVP2,2013-06-22 03:10:00,
2013-06-21 23:11:00,75.3,66.2,29.28,North,4,5.0,10.0,73,0.00,,,0.00,WUHU216DAVISVP2,2013-06-22 03:11:00,
2013-06-21 23:12:00,75.3,66.2,29.28,North,4,6.0,10.0,73,0.00,,,0.00,WUHU216DAVISVP2,2013-06-22 03:12:00,
2013-06-21 23:13:00,75.3,66.2,29.28,North,359,5.0,10.0,73,0.00,,,0.00,WUHU216DAVISVP2,2013-06-22 03:13:00,
2013-06-21 23:15:00,75.2,66.1,29.28,North,359,5.0,10.0,73,0.00,,,0.00,WUHU216DAVISVP2,2013-06-22 03:15:00,
2013-06-21 23:16:00,75.2,66.1,29.28,North,359,4.0,10.0,73,0.00,,,0.00,WUHU216DAVISVP2,2013-06-22 03:16:00,
2013-06-21 23:18:00,75.2,65.9,29.28,North,359,2.0,10.0,73,0.00,,,0.00,WUHU216DAVISVP2,2013-06-22 03:18:00,
2013-06-21 23:20:00,75.1,65.9,29.28,North,359,2.0,10.0,73,0.00,,,0.00,WUHU216DAVISVP2,2013-06-22 03:20:00,
2013-06-21 23:21:00,75.1,65.9,29.28,North,359,2.0,10.0,73,0.00,,,0.00,WUHU216DAVISVP2,2013-06-22 03:21:00,
2013-06-21 23:23:00,75.0,65.8,29.28,North,359,2.0,10.0,73,0.00,,,0.00,WUHU216DAVISVP2,2013-06-22 03:23:00,
2013-06-21 23:26:00,75.0,65.9,29.28,North,359,0.0,9.0,73,0.00,,,0.00,WUHU216DAVISVP2,2013-06-22 03:26:00,
2013-06-21 23:27:00,75.0,65.9,29.28,North,359,0.0,9.0,73,0.00,,,0.00,WUHU216DAVISVP2,2013-06-22 03:27:00,
2013-06-21 23:28:00,75.0,66.3,29.28,North,359,0.0,9.0,74,0.00,,,0.00,WUHU216DAVISVP2,2013-06-22 03:28:00,
2013-06-21 23:31:00,74.9,66.2,29.28,North,359,0.0,7.0,74,0.00,,,0.00,WUHU216DAVISVP2,2013-06-22 03:31:00,
2013-06-21 23:32:00,74.9,66.2,29.28,North,359,0.0,6.0,74,0.00,,,0.00,WUHU216DAVISVP2,2013-06-22 03:32:00,
2013-06-21 23:33:00,74.9,66.2,29.28,North,359,0.0,6.0,74,0.00,,,0.00,WUHU216DAVISVP2,2013-06-22 03:33:00,
2013-06-21 23:34:00,74.9,66.2,29.28,North,359,0.0,6.0,74,0.00,,,0.00,WUHU216DAVISVP2,2013-06-22 03:34:00,
2013-06-21 23:36:00,74.8,66.1,29.28,North,359,0.0,6.0,74,0.00,,,0.00,WUHU216DAVISVP2,2013-06-22 03:36:00,
2013-06-21 23:37:00,74.8,66.1,29.28,North,359,0.0,6.0,74,0.00,,,0.00,WUHU216DAVISVP2,2013-06-22 03:37:00,
2013-06-21 23:38:00,74.8,66.1,29.28,North,359,0.0,4.0,74,0.00,,,0.00,WUHU216DAVISVP2,2013-06-22 03:38:00,
2013-06-21 23:39:00,74.8,66.1,29.28,North,359,0.0,4.0,74,0.00,,,0.00,WUHU216DAVISVP2,2013-06-22 03:39:00,
2013-06-21 23:41:00,74.8,66.1,29.28,North,359,2.0,4.0,74,0.00,,,0.00,WUHU216DAVISVP2,2013-06-22 03:41:00,
2013-06-21 23:42:00,74.7,66.0,29.28,North,359,5.0,5.0,74,0.00,,,0.00,WUHU216DAVISVP2,2013-06-22 03:42:00,
2013-06-21 23:43:00,74.7,66.0,29.28,North,359,5.0,6.0,74,0.00,,,0.00,WUHU216DAVISVP2,2013-06-22 03:43:00,
2013-06-21 23:44:00,74.7,66.0,29.28,North,359,5.0,6.0,74,0.00,,,0.00,WUHU216DAVISVP2,2013-06-22 03:44:00,
2013-06-21 23:46:00,74.6,66.3,29.28,North,4,1.0,8.0,75,0.00,,,0.00,WUHU216DAVISVP2,2013-06-22 03:46:00,
2013-06-21 23:47:00,74.6,66.3,29.28,North,4,0.0,8.0,75,0.00,,,0.00,WUHU216DAVISVP2,2013-06-22 03:47:00,
2013-06-21 23:48:00,74.6,66.3,29.28,North,4,4.0,8.0,75,0.00,,,0.00,WUHU216DAVISVP2,2013-06-22 03:48:00,
2013-06-21 23:49:00,74.6,66.3,29.29,WSW,251,7.0,9.0,75,0.00,,,0.00,WUHU216DAVISVP2,2013-06-22 03:49:00,
2013-06-21 23:51:00,74.5,66.2,29.29,West,260,3.0,11.0,75,0.00,,,0.00,WUHU216DAVISVP2,2013-06-22 03:51:00,
2013-06-21 23:52:00,74.5,65.8,29.28,WNW,296,3.0,11.0,74,0.00,,,0.00,WUHU216DAVISVP2,2013-06-22 03:52:00,
2013-06-21 23:53:00,74.6,65.9,29.28,WNW,299,6.0,11.0,74,0.00,,,0.00,WUHU216DAVISVP2,2013-06-22 03:53:00,
2013-06-21 23:54:00,74.6,65.9,29.28,WNW,295,0.0,11.0,74,0.00,,,0.00,WUHU216DAVISVP2,2013-06-22 03:54:00,
2013-06-21 23:55:00,74.7,65.6,29.28,North,359,2.0,11.0,73,0.00,,,0.00,WUHU216DAVISVP2,2013-06-22 03:55:00,
2013-06-21 23:56:00,74.7,65.6,29.28,NE,43,1.0,11.0,73,0.00,,,0.00,WUHU216DAVISVP2,2013-06-22 03:56:00,
2013-06-21 23:57:00,74.8,65.7,29.28,NE,43,0.0,11.0,73,0.00,,,0.00,WUHU216DAVISVP2,2013-06-22 03:57:00,
2013-06-21 23:58:00,74.8,65.7,29.28,NE,43,0.0,11.0,73,0.00,,,0.00,WUHU216DAVISVP2,2013-06-22 03:58:00,
2013-06-21 23:59:00,74.8,65.7,29.28,NE,43,1.0,11.0,73,0.00,,,0.00,WUHU216DAVISVP2,2013-06-22 03:59:00,